Wetterdaten: Donnerstag, 21.07.2016
Datum Zeit Temp. Aussen Temp. o. S. +5cm Feuchte Auss BlattFeu 1 Luftdruck Regen Sonnenschein Regendauer Solar Windben Empfang
21.07.2016 00:00 26,1 C 24,4 C 21,7 C 68 % 0 lf 1011,5 hPa 0,0 l/m 0 min 0 min 5 W/m 2,1 km/h (1 Bft) 95,65 %
21.07.2016 00:02 26,1 C 24,4 C 21,7 C 68 % 0 lf 1011,5 hPa 0,0 l/m 0 min 0 min 0 W/m 4,2 km/h (1 Bft) 100,00 %
21.07.2016 00:05 25,9 C 24,4 C 21,7 C 69 % 0 lf 1011,5 hPa 0,0 l/m 0 min 0 min 5 W/m 6,3 km/h (2 Bft) 97,18 %
21.07.2016 00:06 25,9 C 24,4 C 21,7 C 69 % 0 lf 1011,5 hPa 0,0 l/m 0 min 0 min 5 W/m 4,2 km/h (1 Bft) 100,00 %
21.07.2016 00:08 25,9 C 24,4 C 21,7 C 69 % 0 lf 1011,5 hPa 0,0 l/m 0 min 0 min 5 W/m 6,3 km/h (2 Bft) 97,87 %
21.07.2016 00:10 25,8 C 24,4 C 22,2 C 69 % 0 lf 1011,5 hPa 0,0 l/m 0 min 0 min 5 W/m 4,2 km/h (1 Bft) 97,87 %
21.07.2016 00:12 25,8 C 24,4 C 22,2 C 69 % 0 lf 1011,6 hPa 0,0 l/m 0 min 0 min 5 W/m 6,3 km/h (2 Bft) 100,00 %
21.07.2016 00:14 25,7 C 24,4 C 22,2 C 69 % 0 lf 1011,6 hPa 0,0 l/m 0 min 0 min 5 W/m 4,2 km/h (1 Bft) 97,87 %
21.07.2016 00:16 25,7 C 24,4 C 22,2 C 69 % 0 lf 1011,7 hPa 0,0 l/m 0 min 0 min 5 W/m 6,3 km/h (2 Bft) 97,83 %
21.07.2016 00:18 25,6 C 24,4 C 22,2 C 69 % 0 lf 1011,7 hPa 0,0 l/m 0 min 0 min 5 W/m 6,3 km/h (2 Bft) 95,74 %
21.07.2016 00:20 25,6 C 25,0 C 22,2 C 69 % 0 lf 1011,6 hPa 0,0 l/m 0 min 0 min 5 W/m 4,2 km/h (1 Bft) 93,62 %
21.07.2016 00:22 25,5 C 24,4 C 22,2 C 70 % 0 lf 1011,6 hPa 0,0 l/m 0 min 0 min 5 W/m 4,2 km/h (1 Bft) 95,74 %
21.07.2016 00:24 25,5 C 24,4 C 22,2 C 70 % 0 lf 1011,6 hPa 0,0 l/m 0 min 0 min 5 W/m 4,2 km/h (1 Bft) 93,62 %
21.07.2016 00:26 25,4 C 24,4 C 22,2 C 70 % 0 lf 1011,7 hPa 0,0 l/m 0 min 0 min 5 W/m 2,1 km/h (1 Bft) 91,49 %
21.07.2016 00:28 25,4 C 24,4 C 22,2 C 70 % 0 lf 1011,6 hPa 0,0 l/m 0 min 0 min 5 W/m 6,3 km/h (2 Bft) 95,65 %
21.07.2016 00:30 25,4 C 24,4 C 22,2 C 70 % 0 lf 1011,6 hPa 0,0 l/m 0 min 0 min 5 W/m 6,3 km/h (2 Bft) 95,74 %
21.07.2016 00:32 25,3 C 23,9 C 22,2 C 70 % 5 lf 1011,6 hPa 0,0 l/m 0 min 2 min 5 W/m 4,2 km/h (1 Bft) 95,74 %
21.07.2016 00:34 25,3 C 23,9 C 22,2 C 70 % 0 lf 1011,4 hPa 0,0 l/m 0 min 0 min 5 W/m 8,4 km/h (2 Bft) 93,62 %
21.07.2016 00:36 25,3 C 23,9 C 21,7 C 70 % 3 lf 1011,4 hPa 0,0 l/m 0 min 2 min 5 W/m 4,2 km/h (1 Bft) 93,62 %
21.07.2016 00:38 25,2 C 23,9 C 21,7 C 70 % 1 lf 1011,4 hPa 0,0 l/m 0 min 2 min 5 W/m 6,3 km/h (2 Bft) 97,87 %
21.07.2016 00:40 25,2 C 23,3 C 21,1 C 70 % 14 lf 1011,4 hPa 0,0 l/m 0 min 2 min 5 W/m 2,1 km/h (1 Bft) 95,65 %
21.07.2016 00:42 25,2 C 22,8 C 21,1 C 70 % 11 lf 1011,4 hPa 0,0 l/m 0 min 0 min 5 W/m 2,1 km/h (1 Bft) 95,74 %
21.07.2016 00:44 25,1 C 22,8 C 20,6 C 70 % 4 lf 1011,4 hPa 0,0 l/m 0 min 0 min 5 W/m 6,3 km/h (2 Bft) 95,74 %
21.07.2016 00:46 25,1 C 22,8 C 20,6 C 71 % 0 lf 1011,4 hPa 0,0 l/m 0 min 0 min 5 W/m 6,3 km/h (2 Bft) 93,62 %
21.07.2016 00:48 25,1 C 23,3 C 20,6 C 71 % 0 lf 1011,4 hPa 0,0 l/m 0 min 0 min 5 W/m 8,4 km/h (2 Bft) 89,36 %
21.07.2016 00:50 25,1 C 23,3 C 20,6 C 71 % 0 lf 1011,4 hPa 0,0 l/m 0 min 0 min 5 W/m 8,4 km/h (2 Bft) 93,62 %
21.07.2016 00:52 25,1 C 23,3 C 20,6 C 71 % 0 lf 1011,5 hPa 0,0 l/m 0 min 0 min 5 W/m 8,4 km/h (2 Bft) 91,30 %
21.07.2016 00:54 25,0 C 23,3 C 20,6 C 71 % 0 lf 1011,5 hPa 0,0 l/m 0 min 0 min 5 W/m 6,3 km/h (2 Bft) 93,62 %
21.07.2016 00:56 25,0 C 23,3 C 20,6 C 72 % 0 lf 1011,5 hPa 0,0 l/m 0 min 0 min 5 W/m 4,2 km/h (1 Bft) 91,49 %
21.07.2016 00:58 24,9 C 23,3 C 20,6 C 72 % 0 lf 1011,6 hPa 0,0 l/m 0 min 0 min 5 W/m 10,5 km/h (2 Bft) 95,74 %
21.07.2016 01:00 24,9 C 23,3 C 20,6 C 72 % 0 lf 1011,6 hPa 0,0 l/m 0 min 0 min 5 W/m 8,4 km/h (2 Bft) 95,74 %
21.07.2016 01:02 24,8 C 23,3 C 20,6 C 72 % 0 lf 1011,5 hPa 0,0 l/m 0 min 0 min 5 W/m 4,2 km/h (1 Bft) 93,62 %
21.07.2016 01:04 24,8 C 23,3 C 20,6 C 72 % 0 lf 1011,4 hPa 0,0 l/m 0 min 0 min 5 W/m 4,2 km/h (1 Bft) 95,65 %
21.07.2016 01:06 24,7 C 23,3 C 20,6 C 72 % 0 lf 1011,4 hPa 0,0 l/m 0 min 0 min 5 W/m 4,2 km/h (1 Bft) 91,49 %
21.07.2016 01:08 24,7 C 23,3 C 20,6 C 72 % 0 lf 1011,4 hPa 0,0 l/m 0 min 0 min 5 W/m 4,2 km/h (1 Bft) 93,62 %
21.07.2016 01:10 24,7 C 22,8 C 20,6 C 72 % 0 lf 1011,4 hPa 0,0 l/m 0 min 0 min 0 W/m 4,2 km/h (1 Bft) 93,62 %
21.07.2016 01:12 24,6 C 22,8 C 20,6 C 72 % 0 lf 1011,4 hPa 0,0 l/m 0 min 0 min 0 W/m 2,1 km/h (1 Bft) 95,74 %
21.07.2016 01:14 24,6 C 22,8 C 20,6 C 73 % 0 lf 1011,5 hPa 0,0 l/m 0 min 0 min 0 W/m 2,1 km/h (1 Bft) 93,62 %
21.07.2016 01:16 24,5 C 22,8 C 20,6 C 73 % 0 lf 1011,5 hPa 0,0 l/m 0 min 0 min 0 W/m 2,1 km/h (1 Bft) 93,48 %
21.07.2016 01:18 24,5 C 22,8 C 20,6 C 73 % 0 lf 1011,5 hPa 0,0 l/m 0 min 0 min 0 W/m 0,0 km/h (0 Bft) 93,62 %
21.07.2016 01:20 24,4 C 22,8 C 20,0 C 74 % 0 lf 1011,4 hPa 0,0 l/m 0 min 0 min 0 W/m 0,0 km/h (0 Bft) 93,62 %
21.07.2016 01:22 24,4 C 22,8 C 20,0 C 74 % 0 lf 1011,4 hPa 0,0 l/m 0 min 0 min 0 W/m 0,0 km/h (0 Bft) 93,62 %
21.07.2016 01:24 24,4 C 22,8 C 20,0 C 74 % 0 lf 1011,4 hPa 0,0 l/m 0 min 0 min 0 W/m 2,1 km/h (1 Bft) 93,62 %
21.07.2016 01:26 24,3 C 22,8 C 20,0 C 74 % 0 lf 1011,5 hPa 0,0 l/m 0 min 0 min 0 W/m 4,2 km/h (1 Bft) 95,65 %
21.07.2016 01:28 24,3 C 22,8 C 20,0 C 74 % 0 lf 1011,5 hPa 0,0 l/m 0 min 0 min 0 W/m 2,1 km/h (1 Bft) 91,49 %
21.07.2016 01:30 24,2 C 22,8 C 20,0 C 75 % 0 lf 1011,5 hPa 0,0 l/m 0 min 0 min 0 W/m 2,1 km/h (1 Bft) 95,74 %
21.07.2016 01:32 24,2 C 22,2 C 20,0 C 75 % 0 lf 1011,5 hPa 0,0 l/m 0 min 0 min 0 W/m 2,1 km/h (1 Bft) 95,74 %
21.07.2016 01:34 24,1 C 22,2 C 20,0 C 75 % 0 lf 1011,5 hPa 0,0 l/m 0 min 0 min 0 W/m 2,1 km/h (1 Bft) 95,74 %
21.07.2016 01:36 24,1 C 22,2 C 20,0 C 76 % 0 lf 1011,5 hPa 0,0 l/m 0 min 0 min 0 W/m 2,1 km/h (1 Bft) 95,74 %
21.07.2016 01:38 24,1 C 22,2 C 20,0 C 76 % 0 lf 1011,5 hPa 0,0 l/m 0 min 0 min 5 W/m 2,1 km/h (1 Bft) 97,83 %
21.07.2016 01:40 24,0 C 22,2 C 20,0 C 76 % 0 lf 1011,5 hPa 0,0 l/m 0 min 0 min 5 W/m 2,1 km/h (1 Bft) 95,74 %
21.07.2016 01:42 23,9 C 22,2 C 20,0 C 76 % 0 lf 1011,5 hPa 0,0 l/m 0 min 0 min 5 W/m 0,0 km/h (0 Bft) 95,74 %
21.07.2016 01:44 23,9 C 22,2 C 20,0 C 77 % 0 lf 1011,5 hPa 0,0 l/m 0 min 0 min 5 W/m 0,0 km/h (0 Bft) 95,74 %
21.07.2016 01:46 23,8 C 21,7 C 20,0 C 77 % 0 lf 1011,5 hPa 0,0 l/m 0 min 0 min 5 W/m 0,0 km/h (0 Bft) 97,87 %
21.07.2016 01:48 23,8 C 21,7 C 20,0 C 77 % 0 lf 1011,4 hPa 0,0 l/m 0 min 0 min 5 W/m 4,2 km/h (1 Bft) 97,87 %
21.07.2016 01:50 23,7 C 22,2 C 20,0 C 77 % 0 lf 1011,4 hPa 0,0 l/m 0 min 0 min 5 W/m 2,1 km/h (1 Bft) 95,65 %
21.07.2016 01:52 23,7 C 22,2 C 20,0 C 78 % 0 lf 1011,4 hPa 0,0 l/m 0 min 0 min 5 W/m 2,1 km/h (1 Bft) 95,74 %
21.07.2016 01:54 23,6 C 21,7 C 20,0 C 77 % 0 lf 1011,5 hPa 0,0 l/m 0 min 0 min 5 W/m 2,1 km/h (1 Bft) 97,87 %
21.07.2016 01:56 23,6 C 21,7 C 19,4 C 77 % 0 lf 1011,5 hPa 0,0 l/m 0 min 0 min 5 W/m 2,1 km/h (1 Bft) 97,87 %
21.07.2016 01:58 23,5 C 21,7 C 19,4 C 77 % 0 lf 1011,5 hPa 0,0 l/m 0 min 0 min 5 W/m 0,0 km/h (0 Bft) 97,87 %
21.07.2016 02:00 23,5 C 21,7 C 19,4 C 78 % 0 lf 1011,5 hPa 0,0 l/m 0 min 0 min 5 W/m 2,1 km/h (1 Bft) 97,87 %
21.07.2016 02:02 23,4 C 21,7 C 19,4 C 78 % 0 lf 1011,5 hPa 0,0 l/m 0 min 0 min 5 W/m 4,2 km/h (1 Bft) 100,00 %
21.07.2016 02:04 23,4 C 21,7 C 19,4 C 78 % 0 lf 1011,5 hPa 0,0 l/m 0 min 0 min 0 W/m 2,1 km/h (1 Bft) 100,00 %
21.07.2016 02:06 23,3 C 21,7 C 19,4 C 78 % 0 lf 1011,5 hPa 0,0 l/m 0 min 0 min 0 W/m 0,0 km/h (0 Bft) 95,35 %
21.07.2016 02:08 23,3 C 21,7 C 19,4 C 78 % 0 lf 1011,6 hPa 0,0 l/m 0 min 0 min 0 W/m 0,0 km/h (0 Bft) 100,00 %
21.07.2016 02:10 23,2 C 21,7 C 19,4 C 78 % 0 lf 1011,5 hPa 0,0 l/m 0 min 0 min 0 W/m 0,0 km/h (0 Bft) 100,00 %
21.07.2016 02:12 23,2 C 21,7 C 19,4 C 78 % 0 lf 1011,5 hPa 0,0 l/m 0 min 0 min 0 W/m 0,0 km/h (0 Bft) 100,00 %
21.07.2016 02:14 23,2 C 21,7 C 19,4 C 78 % 0 lf 1011,5 hPa 0,0 l/m 0 min 0 min 0 W/m 0,0 km/h (0 Bft) 97,87 %
21.07.2016 02:16 23,1 C 21,7 C 19,4 C 78 % 0 lf 1011,4 hPa 0,0 l/m 0 min 0 min 0 W/m 0,0 km/h (0 Bft) 97,87 %
21.07.2016 02:18 23,1 C 21,1 C 19,4 C 78 % 0 lf 1011,5 hPa 0,0 l/m 0 min 0 min 0 W/m 0,0 km/h (0 Bft) 95,74 %
21.07.2016 02:20 23,0 C 21,1 C 19,4 C 79 % 0 lf 1011,6 hPa 0,0 l/m 0 min 0 min 0 W/m 0,0 km/h (0 Bft) 97,87 %
21.07.2016 02:22 22,9 C 21,1 C 19,4 C 79 % 0 lf 1011,6 hPa 0,0 l/m 0 min 0 min 0 W/m 0,0 km/h (0 Bft) 97,83 %
21.07.2016 02:24 22,9 C 21,1 C 19,4 C 79 % 0 lf 1011,6 hPa 0,0 l/m 0 min 0 min 0 W/m 0,0 km/h (0 Bft) 97,87 %
21.07.2016 02:26 22,9 C 21,1 C 19,4 C 79 % 0 lf 1011,6 hPa 0,0 l/m 0 min 0 min 5 W/m 0,0 km/h (0 Bft) 97,87 %
21.07.2016 02:28 22,8 C 21,1 C 19,4 C 79 % 0 lf 1011,5 hPa 0,0 l/m 0 min 0 min 5 W/m 0,0 km/h (0 Bft) 97,87 %
21.07.2016 02:30 22,8 C 21,1 C 19,4 C 79 % 0 lf 1011,6 hPa 0,0 l/m 0 min 0 min 5 W/m 0,0 km/h (0 Bft) 97,87 %
21.07.2016 02:32 22,8 C 21,1 C 19,4 C 79 % 0 lf 1011,6 hPa 0,0 l/m 0 min 0 min 5 W/m 0,0 km/h (0 Bft) 100,00 %
21.07.2016 02:34 22,7 C 21,1 C 19,4 C 80 % 0 lf 1011,6 hPa 0,0 l/m 0 min 0 min 5 W/m 0,0 km/h (0 Bft) 91,49 %
21.07.2016 02:36 22,7 C 21,1 C 19,4 C 80 % 0 lf 1011,6 hPa 0,0 l/m 0 min 0 min 5 W/m 0,0 km/h (0 Bft) 92,00 %
21.07.2016 02:38 22,7 C 21,1 C 19,4 C 80 % 0 lf 1011,7 hPa 0,0 l/m 0 min 0 min 5 W/m 0,0 km/h (0 Bft) 95,74 %
21.07.2016 02:40 22,6 C 21,1 C 19,4 C 80 % 0 lf 1011,6 hPa 0,0 l/m 0 min 0 min 5 W/m 0,0 km/h (0 Bft) 95,74 %
21.07.2016 02:42 22,6 C 21,1 C 19,4 C 81 % 0 lf 1011,6 hPa 0,0 l/m 0 min 0 min 5 W/m 0,0 km/h (0 Bft) 93,62 %
21.07.2016 02:44 22,6 C 21,1 C 19,4 C 81 % 0 lf 1011,7 hPa 0,0 l/m 0 min 0 min 1 W/m 0,0 km/h (0 Bft) 97,87 %
21.07.2016 02:46 22,5 C 21,1 C 19,4 C 81 % 0 lf 1011,7 hPa 0,0 l/m 0 min 0 min 2 W/m 0,0 km/h (0 Bft) 95,74 %
21.07.2016 02:48 22,5 C 21,1 C 19,4 C 81 % 0 lf 1011,8 hPa 0,0 l/m 0 min 0 min 0 W/m 0,0 km/h (0 Bft) 97,83 %
21.07.2016 02:50 22,4 C 21,1 C 19,4 C 81 % 0 lf 1011,8 hPa 0,0 l/m 0 min 0 min 0 W/m 0,0 km/h (0 Bft) 93,62 %
21.07.2016 02:52 22,4 C 21,1 C 19,4 C 81 % 0 lf 1011,8 hPa 0,0 l/m 0 min 0 min 0 W/m 0,0 km/h (0 Bft) 97,87 %
21.07.2016 02:54 22,4 C 21,1 C 19,4 C 82 % 0 lf 1011,7 hPa 0,0 l/m 0 min 0 min 0 W/m 0,0 km/h (0 Bft) 100,00 %
21.07.2016 02:56 22,4 C 21,1 C 19,4 C 82 % 0 lf 1011,7 hPa 0,0 l/m 0 min 0 min 0 W/m 0,0 km/h (0 Bft) 97,87 %
21.07.2016 02:58 22,3 C 21,1 C 19,4 C 83 % 0 lf 1011,7 hPa 0,0 l/m 0 min 0 min 0 W/m 0,0 km/h (0 Bft) 97,87 %
21.07.2016 03:00 22,3 C 21,1 C 19,4 C 83 % 0 lf 1011,7 hPa 0,0 l/m 0 min 0 min 0 W/m 0,0 km/h (0 Bft) 97,83 %
21.07.2016 03:02 22,3 C 21,1 C 19,4 C 83 % 0 lf 1011,7 hPa 0,0 l/m 0 min 0 min 0 W/m 0,0 km/h (0 Bft) 100,00 %
21.07.2016 03:04 22,2 C 21,1 C 19,4 C 83 % 0 lf 1011,7 hPa 0,0 l/m 0 min 0 min 0 W/m 0,0 km/h (0 Bft) 97,87 %
21.07.2016 03:06 22,2 C 21,1 C 19,4 C 83 % 0 lf 1011,8 hPa 0,0 l/m 0 min 0 min 0 W/m 0,0 km/h (0 Bft) 100,00 %
21.07.2016 03:08 22,2 C 21,1 C 19,4 C 83 % 0 lf 1011,8 hPa 0,0 l/m 0 min 0 min 0 W/m 0,0 km/h (0 Bft) 100,00 %
21.07.2016 03:10 22,2 C 20,6 C 19,4 C 83 % 0 lf 1011,8 hPa 0,0 l/m 0 min 0 min 1 W/m 0,0 km/h (0 Bft) 100,00 %
21.07.2016 03:12 22,1 C 20,6 C 19,4 C 83 % 0 lf 1011,8 hPa 0,0 l/m 0 min 0 min 5 W/m 0,0 km/h (0 Bft) 97,83 %
21.07.2016 03:14 22,1 C 20,6 C 19,4 C 83 % 0 lf 1011,8 hPa 0,0 l/m 0 min 0 min 5 W/m 0,0 km/h (0 Bft) 97,87 %
21.07.2016 03:16 22,1 C 21,1 C 19,4 C 83 % 0 lf 1011,8 hPa 0,0 l/m 0 min 0 min 5 W/m 0,0 km/h (0 Bft) 100,00 %
21.07.2016 03:18 22,1 C 21,1 C 19,4 C 83 % 0 lf 1011,8 hPa 0,0 l/m 0 min 0 min 5 W/m 0,0 km/h (0 Bft) 100,00 %
21.07.2016 03:20 22,0 C 21,1 C 19,4 C 83 % 0 lf 1011,8 hPa 0,0 l/m 0 min 0 min 0 W/m 0,0 km/h (0 Bft) 100,00 %
21.07.2016 03:22 22,0 C 21,1 C 19,4 C 83 % 0 lf 1011,8 hPa 0,0 l/m 0 min 0 min 0 W/m 0,0 km/h (0 Bft) 100,00 %
21.07.2016 03:24 21,9 C 21,1 C 19,4 C 83 % 0 lf 1011,8 hPa 0,0 l/m 0 min 0 min 0 W/m 0,0 km/h (0 Bft) 97,83 %
21.07.2016 03:26 21,9 C 21,1 C 19,4 C 83 % 0 lf 1011,9 hPa 0,0 l/m 0 min 0 min 0 W/m 0,0 km/h (0 Bft) 97,87 %
21.07.2016 03:28 21,9 C 21,1 C 19,4 C 83 % 0 lf 1011,8 hPa 0,0 l/m 0 min 0 min 0 W/m 0,0 km/h (0 Bft) 97,87 %
21.07.2016 03:30 21,9 C 21,1 C 19,4 C 83 % 0 lf 1011,8 hPa 0,0 l/m 0 min 0 min 0 W/m 0,0 km/h (0 Bft) 97,87 %
21.07.2016 03:32 21,9 C 21,1 C 19,4 C 83 % 0 lf 1011,9 hPa 0,0 l/m 0 min 0 min 5 W/m 0,0 km/h (0 Bft) 94,29 %
21.07.2016 03:34 21,8 C 21,1 C 19,4 C 83 % 0 lf 1011,9 hPa 0,0 l/m 0 min 0 min 5 W/m 0,0 km/h (0 Bft) 97,87 %
21.07.2016 03:36 21,8 C 20,6 C 19,4 C 83 % 0 lf 1011,8 hPa 0,0 l/m 0 min 0 min 5 W/m 0,0 km/h (0 Bft) 96,36 %
21.07.2016 03:38 21,8 C 20,6 C 19,4 C 83 % 0 lf 1011,9 hPa 0,0 l/m 0 min 0 min 5 W/m 0,0 km/h (0 Bft) 95,74 %
21.07.2016 03:40 21,8 C 20,6 C 19,4 C 83 % 0 lf 1011,9 hPa 0,0 l/m 0 min 0 min 5 W/m 0,0 km/h (0 Bft) 97,87 %
21.07.2016 03:42 21,8 C 20,6 C 19,4 C 83 % 0 lf 1011,9 hPa 0,0 l/m 0 min 0 min 5 W/m 0,0 km/h (0 Bft) 93,48 %
21.07.2016 03:44 21,8 C 20,6 C 19,4 C 84 % 0 lf 1011,9 hPa 0,0 l/m 0 min 0 min 5 W/m 0,0 km/h (0 Bft) 95,74 %
21.07.2016 03:46 21,7 C 20,6 C 19,4 C 84 % 0 lf 1011,9 hPa 0,0 l/m 0 min 0 min 5 W/m 0,0 km/h (0 Bft) 95,74 %
21.07.2016 03:48 21,7 C 20,6 C 19,4 C 84 % 0 lf 1011,9 hPa 0,0 l/m 0 min 0 min 5 W/m 0,0 km/h (0 Bft) 95,74 %
21.07.2016 03:50 21,7 C 20,6 C 19,4 C 84 % 0 lf 1012,0 hPa 0,0 l/m 0 min 0 min 5 W/m 0,0 km/h (0 Bft) 93,62 %
21.07.2016 03:52 21,7 C 20,6 C 19,4 C 84 % 0 lf 1012,0 hPa 0,0 l/m 0 min 0 min 5 W/m 0,0 km/h (0 Bft) 93,62 %
21.07.2016 03:54 21,7 C 20,6 C 19,4 C 84 % 0 lf 1012,0 hPa 0,0 l/m 0 min 0 min 5 W/m 0,0 km/h (0 Bft) 93,48 %
21.07.2016 03:56 21,7 C 20,6 C 18,9 C 84 % 0 lf 1012,0 hPa 0,0 l/m 0 min 0 min 5 W/m 0,0 km/h (0 Bft) 95,74 %
21.07.2016 03:58 21,6 C 20,6 C 18,9 C 84 % 0 lf 1012,0 hPa 0,0 l/m 0 min 0 min 5 W/m 0,0 km/h (0 Bft) 91,49 %
21.07.2016 04:00 21,6 C 20,6 C 18,9 C 84 % 0 lf 1012,0 hPa 0,0 l/m 0 min 0 min 5 W/m 0,0 km/h (0 Bft) 87,23 %
21.07.2016 04:02 21,6 C 20,6 C 18,9 C 84 % 0 lf 1012,1 hPa 0,0 l/m 0 min 0 min 5 W/m 0,0 km/h (0 Bft) 100,00 %
21.07.2016 04:04 21,6 C 20,6 C 18,9 C 85 % 0 lf 1012,1 hPa 0,0 l/m 0 min 0 min 5 W/m 0,0 km/h (0 Bft) 97,87 %
21.07.2016 04:06 21,6 C 20,6 C 18,9 C 85 % 0 lf 1012,0 hPa 0,0 l/m 0 min 0 min 5 W/m 0,0 km/h (0 Bft) 95,74 %
21.07.2016 04:08 21,6 C 20,6 C 18,9 C 85 % 0 lf 1012,1 hPa 0,0 l/m 0 min 0 min 5 W/m 6,3 km/h (2 Bft) 95,74 %
21.07.2016 04:10 21,6 C 20,6 C 18,9 C 85 % 0 lf 1012,2 hPa 0,0 l/m 0 min 0 min 5 W/m 6,3 km/h (2 Bft) 95,65 %
21.07.2016 04:12 21,6 C 20,6 C 18,9 C 86 % 0 lf 1012,2 hPa 0,0 l/m 0 min 0 min 5 W/m 4,2 km/h (1 Bft) 93,62 %
21.07.2016 04:14 21,5 C 20,6 C 18,9 C 86 % 0 lf 1012,2 hPa 0,0 l/m 0 min 0 min 5 W/m 6,3 km/h (2 Bft) 89,36 %
21.07.2016 04:16 21,5 C 20,6 C 18,9 C 86 % 0 lf 1012,2 hPa 0,0 l/m 0 min 0 min 5 W/m 6,3 km/h (2 Bft) 89,36 %
21.07.2016 04:18 21,5 C 21,1 C 18,9 C 86 % 0 lf 1012,1 hPa 0,0 l/m 0 min 0 min 5 W/m 4,2 km/h (1 Bft) 93,62 %
21.07.2016 04:20 21,4 C 21,1 C 18,9 C 86 % 0 lf 1012,1 hPa 0,0 l/m 0 min 0 min 5 W/m 4,2 km/h (1 Bft) 91,49 %
21.07.2016 04:22 21,4 C 21,1 C 18,9 C 86 % 0 lf 1012,2 hPa 0,0 l/m 0 min 0 min 5 W/m 4,2 km/h (1 Bft) 93,48 %
21.07.2016 04:24 21,4 C 21,1 C 19,4 C 86 % 0 lf 1012,2 hPa 0,0 l/m 0 min 0 min 5 W/m 6,3 km/h (2 Bft) 91,49 %
21.07.2016 04:26 21,4 C 21,1 C 19,4 C 86 % 0 lf 1012,2 hPa 0,0 l/m 0 min 0 min 5 W/m 4,2 km/h (1 Bft) 87,23 %
21.07.2016 04:28 21,4 C 21,1 C 19,4 C 86 % 0 lf 1012,2 hPa 0,0 l/m 0 min 0 min 5 W/m 4,2 km/h (1 Bft) 93,62 %
21.07.2016 04:30 21,4 C 21,1 C 19,4 C 86 % 0 lf 1012,2 hPa 0,0 l/m 0 min 0 min 5 W/m 2,1 km/h (1 Bft) 93,62 %
21.07.2016 04:32 21,4 C 21,1 C 19,4 C 87 % 0 lf 1012,2 hPa 0,0 l/m 0 min 0 min 5 W/m 4,2 km/h (1 Bft) 93,62 %
21.07.2016 04:34 21,4 C 21,1 C 19,4 C 87 % 0 lf 1012,3 hPa 0,0 l/m 0 min 0 min 5 W/m 4,2 km/h (1 Bft) 91,30 %
21.07.2016 04:36 21,4 C 21,1 C 19,4 C 87 % 0 lf 1012,4 hPa 0,0 l/m 0 min 0 min 5 W/m 4,2 km/h (1 Bft) 92,86 %
21.07.2016 04:38 21,4 C 21,1 C 19,4 C 87 % 0 lf 1012,4 hPa 0,0 l/m 0 min 0 min 5 W/m 6,3 km/h (2 Bft) 93,62 %
21.07.2016 04:40 21,4 C 21,1 C 19,4 C 87 % 0 lf 1012,4 hPa 0,0 l/m 0 min 0 min 5 W/m 8,4 km/h (2 Bft) 89,36 %
21.07.2016 04:42 21,3 C 21,1 C 19,4 C 87 % 0 lf 1012,4 hPa 0,0 l/m 0 min 0 min 5 W/m 6,3 km/h (2 Bft) 95,74 %
21.07.2016 04:44 21,3 C 21,1 C 19,4 C 87 % 0 lf 1012,4 hPa 0,0 l/m 0 min 0 min 5 W/m 4,2 km/h (1 Bft) 93,48 %
21.07.2016 04:46 21,3 C 20,6 C 18,9 C 87 % 1 lf 1012,4 hPa 0,0 l/m 0 min 0 min 5 W/m 6,3 km/h (2 Bft) 93,62 %
21.07.2016 04:48 21,3 C 20,6 C 18,9 C 87 % 1 lf 1012,4 hPa 0,0 l/m 0 min 0 min 5 W/m 6,3 km/h (2 Bft) 95,74 %
21.07.2016 04:50 21,3 C 21,1 C 18,9 C 87 % 1 lf 1012,4 hPa 0,0 l/m 0 min 0 min 5 W/m 6,3 km/h (2 Bft) 95,74 %
21.07.2016 04:52 21,3 C 20,6 C 18,9 C 87 % 1 lf 1012,4 hPa 0,0 l/m 0 min 0 min 5 W/m 6,3 km/h (2 Bft) 95,74 %
21.07.2016 04:54 21,3 C 20,6 C 18,9 C 87 % 1 lf 1012,4 hPa 0,0 l/m 0 min 0 min 5 W/m 6,3 km/h (2 Bft) 95,65 %
21.07.2016 04:56 21,3 C 20,6 C 18,9 C 87 % 1 lf 1012,5 hPa 0,0 l/m 0 min 0 min 5 W/m 4,2 km/h (1 Bft) 95,74 %
21.07.2016 04:58 21,2 C 20,6 C 18,9 C 87 % 1 lf 1012,6 hPa 0,0 l/m 0 min 0 min 5 W/m 4,2 km/h (1 Bft) 95,74 %
21.07.2016 05:00 21,2 C 20,6 C 18,9 C 87 % 1 lf 1012,5 hPa 0,0 l/m 0 min 0 min 5 W/m 6,3 km/h (2 Bft) 91,49 %
21.07.2016 05:02 21,2 C 20,6 C 18,9 C 88 % 1 lf 1012,5 hPa 0,0 l/m 0 min 0 min 5 W/m 6,3 km/h (2 Bft) 100,00 %
21.07.2016 05:04 21,2 C 20,6 C 18,9 C 88 % 1 lf 1012,4 hPa 0,0 l/m 0 min 0 min 5 W/m 6,3 km/h (2 Bft) 100,00 %
21.07.2016 05:06 21,2 C 20,6 C 18,9 C 88 % 1 lf 1012,4 hPa 0,0 l/m 0 min 0 min 5 W/m 6,3 km/h (2 Bft) 100,00 %
21.07.2016 05:08 21,2 C 20,6 C 18,9 C 88 % 1 lf 1012,4 hPa 0,0 l/m 0 min 0 min 5 W/m 6,3 km/h (2 Bft) 100,00 %
21.07.2016 05:10 21,2 C 20,6 C 18,9 C 88 % 1 lf 1012,4 hPa 0,0 l/m 0 min 0 min 5 W/m 4,2 km/h (1 Bft) 97,87 %
21.07.2016 05:12 21,2 C 20,6 C 18,9 C 88 % 1 lf 1012,5 hPa 0,0 l/m 0 min 0 min 5 W/m 4,2 km/h (1 Bft) 97,87 %
21.07.2016 05:14 21,2 C 20,0 C 18,9 C 88 % 1 lf 1012,4 hPa 0,0 l/m 0 min 0 min 5 W/m 4,2 km/h (1 Bft) 97,87 %
21.07.2016 05:16 21,2 C 20,0 C 18,9 C 88 % 1 lf 1012,4 hPa 0,0 l/m 0 min 0 min 5 W/m 6,3 km/h (2 Bft) 100,00 %
21.07.2016 05:18 21,2 C 20,6 C 18,9 C 88 % 1 lf 1012,5 hPa 0,0 l/m 0 min 0 min 5 W/m 4,2 km/h (1 Bft) 97,87 %
21.07.2016 05:20 21,1 C 20,6 C 18,9 C 88 % 1 lf 1012,5 hPa 0,0 l/m 0 min 0 min 5 W/m 2,1 km/h (1 Bft) 97,87 %
21.07.2016 05:22 21,1 C 20,6 C 18,3 C 88 % 1 lf 1012,4 hPa 0,0 l/m 0 min 0 min 5 W/m 6,3 km/h (2 Bft) 97,87 %
21.07.2016 05:24 21,1 C 20,0 C 18,9 C 88 % 1 lf 1012,4 hPa 0,0 l/m 0 min 0 min 5 W/m 6,3 km/h (2 Bft) 100,00 %
21.07.2016 05:26 21,1 C 20,0 C 18,9 C 88 % 1 lf 1012,5 hPa 0,0 l/m 0 min 0 min 5 W/m 4,2 km/h (1 Bft) 95,74 %
21.07.2016 05:28 21,1 C 20,0 C 18,9 C 88 % 1 lf 1012,5 hPa 0,0 l/m 0 min 0 min 5 W/m 4,2 km/h (1 Bft) 100,00 %
21.07.2016 05:30 21,1 C 20,6 C 18,9 C 88 % 1 lf 1012,4 hPa 0,0 l/m 0 min 0 min 5 W/m 4,2 km/h (1 Bft) 97,87 %
21.07.2016 05:32 21,1 C 20,6 C 18,9 C 88 % 1 lf 1012,4 hPa 0,0 l/m 0 min 0 min 6 W/m 2,1 km/h (1 Bft) 100,00 %
21.07.2016 05:34 21,0 C 20,6 C 18,9 C 88 % 1 lf 1012,4 hPa 0,0 l/m 0 min 0 min 7 W/m 0,0 km/h (0 Bft) 100,00 %
21.07.2016 05:36 21,0 C 20,6 C 18,9 C 88 % 1 lf 1012,3 hPa 0,0 l/m 0 min 0 min 9 W/m 0,0 km/h (0 Bft) 100,00 %
21.07.2016 05:38 21,0 C 20,0 C 18,9 C 88 % 1 lf 1012,4 hPa 0,0 l/m 0 min 0 min 9 W/m 0,0 km/h (0 Bft) 100,00 %
21.07.2016 05:40 21,0 C 20,0 C 18,9 C 88 % 1 lf 1012,4 hPa 0,0 l/m 0 min 0 min 7 W/m 0,0 km/h (0 Bft) 97,87 %
21.07.2016 05:42 21,0 C 20,0 C 18,9 C 88 % 6 lf 1012,4 hPa 0,0 l/m 0 min 0 min 7 W/m 2,1 km/h (1 Bft) 100,00 %
21.07.2016 05:44 21,0 C 20,0 C 18,3 C 88 % 3 lf 1012,4 hPa 0,0 l/m 0 min 0 min 9 W/m 0,0 km/h (0 Bft) 97,83 %
21.07.2016 05:46 20,9 C 20,0 C 18,3 C 88 % 2 lf 1012,4 hPa 0,0 l/m 0 min 0 min 9 W/m 2,1 km/h (1 Bft) 100,00 %
21.07.2016 05:48 20,9 C 20,0 C 18,3 C 88 % 1 lf 1012,5 hPa 0,0 l/m 0 min 0 min 9 W/m 2,1 km/h (1 Bft) 100,00 %
21.07.2016 05:50 20,9 C 20,0 C 18,3 C 88 % 1 lf 1012,4 hPa 0,0 l/m 0 min 0 min 10 W/m 4,2 km/h (1 Bft) 100,00 %
21.07.2016 05:52 20,9 C 20,0 C 18,3 C 88 % 1 lf 1012,4 hPa 0,0 l/m 0 min 0 min 11 W/m 4,2 km/h (1 Bft) 100,00 %
21.07.2016 05:54 20,9 C 20,0 C 18,9 C 89 % 1 lf 1012,4 hPa 0,0 l/m 0 min 0 min 12 W/m 2,1 km/h (1 Bft) 100,00 %
21.07.2016 05:56 20,9 C 20,0 C 18,9 C 89 % 1 lf 1012,4 hPa 0,0 l/m 0 min 0 min 12 W/m 0,0 km/h (0 Bft) 95,65 %
21.07.2016 05:58 20,9 C 20,0 C 18,9 C 89 % 1 lf 1012,4 hPa 0,0 l/m 0 min 0 min 14 W/m 4,2 km/h (1 Bft) 97,87 %
21.07.2016 06:00 20,8 C 20,0 C 18,9 C 89 % 1 lf 1012,4 hPa 0,0 l/m 0 min 0 min 16 W/m 4,2 km/h (1 Bft) 100,00 %
21.07.2016 06:02 20,8 C 20,0 C 18,3 C 89 % 1 lf 1012,4 hPa 0,0 l/m 0 min 0 min 18 W/m 4,2 km/h (1 Bft) 100,00 %
21.07.2016 06:04 20,8 C 20,0 C 18,3 C 89 % 1 lf 1012,4 hPa 0,0 l/m 2 min 0 min 19 W/m 6,3 km/h (2 Bft) 97,87 %
21.07.2016 06:06 20,8 C 20,0 C 18,3 C 89 % 1 lf 1012,5 hPa 0,0 l/m 2 min 0 min 20 W/m 10,5 km/h (2 Bft) 97,87 %
21.07.2016 06:08 20,8 C 20,6 C 18,9 C 89 % 1 lf 1012,6 hPa 0,0 l/m 2 min 0 min 21 W/m 8,4 km/h (2 Bft) 95,65 %
21.07.2016 06:10 20,8 C 20,6 C 18,9 C 89 % 1 lf 1012,5 hPa 0,0 l/m 0 min 0 min 22 W/m 10,5 km/h (2 Bft) 97,87 %
21.07.2016 06:12 20,8 C 20,6 C 18,9 C 89 % 1 lf 1012,5 hPa 0,0 l/m 0 min 0 min 24 W/m 8,4 km/h (2 Bft) 100,00 %
21.07.2016 06:14 20,8 C 20,6 C 18,9 C 89 % 1 lf 1012,6 hPa 0,0 l/m 0 min 0 min 25 W/m 12,6 km/h (3 Bft) 100,00 %
21.07.2016 06:16 20,8 C 20,6 C 18,9 C 89 % 1 lf 1012,6 hPa 0,0 l/m 0 min 0 min 26 W/m 10,5 km/h (2 Bft) 97,87 %
21.07.2016 06:18 20,7 C 20,6 C 18,9 C 90 % 1 lf 1012,5 hPa 0,0 l/m 0 min 0 min 27 W/m 6,3 km/h (2 Bft) 93,62 %
21.07.2016 06:20 20,7 C 20,6 C 18,9 C 90 % 1 lf 1012,6 hPa 0,0 l/m 0 min 0 min 29 W/m 8,4 km/h (2 Bft) 97,83 %
21.07.2016 06:22 20,7 C 20,6 C 18,9 C 89 % 1 lf 1012,6 hPa 0,0 l/m 0 min 0 min 31 W/m 8,4 km/h (2 Bft) 95,74 %
21.07.2016 06:24 20,7 C 20,6 C 18,9 C 89 % 1 lf 1012,6 hPa 0,0 l/m 0 min 0 min 32 W/m 8,4 km/h (2 Bft) 93,62 %
21.07.2016 06:26 20,7 C 20,6 C 18,9 C 90 % 1 lf 1012,7 hPa 0,0 l/m 0 min 0 min 34 W/m 8,4 km/h (2 Bft) 93,62 %
21.07.2016 06:28 20,7 C 20,6 C 19,4 C 90 % 1 lf 1012,7 hPa 0,0 l/m 0 min 0 min 36 W/m 8,4 km/h (2 Bft) 95,74 %
21.07.2016 06:30 20,7 C 20,6 C 19,4 C 90 % 1 lf 1012,7 hPa 0,0 l/m 0 min 0 min 39 W/m 8,4 km/h (2 Bft) 95,74 %
21.07.2016 06:32 20,7 C 20,6 C 19,4 C 90 % 1 lf 1012,7 hPa 0,0 l/m 0 min 0 min 41 W/m 8,4 km/h (2 Bft) 94,29 %
21.07.2016 06:34 20,7 C 20,6 C 19,4 C 90 % 1 lf 1012,7 hPa 0,0 l/m 0 min 0 min 44 W/m 8,4 km/h (2 Bft) 95,65 %
21.07.2016 06:36 20,7 C 20,6 C 19,4 C 90 % 1 lf 1012,7 hPa 0,0 l/m 0 min 0 min 47 W/m 8,4 km/h (2 Bft) 91,07 %
21.07.2016 06:38 20,7 C 20,6 C 19,4 C 90 % 0 lf 1012,7 hPa 0,0 l/m 0 min 0 min 50 W/m 10,5 km/h (2 Bft) 95,74 %
21.07.2016 06:40 20,7 C 20,6 C 19,4 C 90 % 0 lf 1012,7 hPa 0,0 l/m 0 min 0 min 53 W/m 6,3 km/h (2 Bft) 95,65 %
21.07.2016 06:42 20,7 C 20,6 C 19,4 C 90 % 0 lf 1012,7 hPa 0,0 l/m 0 min 0 min 56 W/m 6,3 km/h (2 Bft) 95,74 %
21.07.2016 06:44 20,7 C 20,6 C 19,4 C 90 % 0 lf 1012,8 hPa 0,0 l/m 0 min 0 min 59 W/m 8,4 km/h (2 Bft) 95,74 %
21.07.2016 06:46 20,7 C 20,6 C 19,4 C 90 % 0 lf 1012,7 hPa 0,0 l/m 0 min 0 min 62 W/m 8,4 km/h (2 Bft) 95,74 %
21.07.2016 06:48 20,7 C 20,6 C 19,4 C 90 % 0 lf 1012,8 hPa 0,0 l/m 0 min 0 min 65 W/m 4,2 km/h (1 Bft) 93,62 %
21.07.2016 06:50 20,7 C 21,1 C 19,4 C 90 % 0 lf 1012,8 hPa 0,0 l/m 0 min 0 min 67 W/m 8,4 km/h (2 Bft) 97,87 %
21.07.2016 06:52 20,7 C 21,1 C 19,4 C 90 % 0 lf 1012,8 hPa 0,0 l/m 0 min 0 min 71 W/m 6,3 km/h (2 Bft) 95,65 %
21.07.2016 06:54 20,7 C 21,1 C 19,4 C 90 % 0 lf 1012,8 hPa 0,0 l/m 2 min 0 min 76 W/m 6,3 km/h (2 Bft) 95,74 %
21.07.2016 06:56 20,7 C 21,1 C 20,0 C 90 % 0 lf 1012,8 hPa 0,0 l/m 0 min 0 min 73 W/m 10,5 km/h (2 Bft) 95,74 %
21.07.2016 06:58 20,7 C 21,1 C 20,0 C 90 % 0 lf 1012,8 hPa 0,0 l/m 0 min 0 min 64 W/m 10,5 km/h (2 Bft) 97,87 %
21.07.2016 07:00 20,7 C 21,1 C 20,0 C 90 % 0 lf 1012,8 hPa 0,0 l/m 0 min 0 min 61 W/m 8,4 km/h (2 Bft) 91,49 %
21.07.2016 07:02 20,7 C 21,1 C 20,0 C 90 % 0 lf 1012,8 hPa 0,0 l/m 0 min 0 min 68 W/m 8,4 km/h (2 Bft) 95,74 %
21.07.2016 07:04 20,7 C 21,1 C 20,0 C 90 % 0 lf 1012,8 hPa 0,0 l/m 0 min 0 min 75 W/m 10,5 km/h (2 Bft) 100,00 %
21.07.2016 07:06 20,7 C 21,1 C 20,0 C 90 % 0 lf 1012,8 hPa 0,0 l/m 0 min 0 min 83 W/m 10,5 km/h (2 Bft) 95,92 %
21.07.2016 07:08 20,7 C 21,1 C 20,0 C 90 % 0 lf 1012,9 hPa 0,0 l/m 0 min 0 min 90 W/m 10,5 km/h (2 Bft) 97,87 %
21.07.2016 07:10 20,7 C 21,1 C 20,0 C 90 % 0 lf 1012,9 hPa 0,0 l/m 0 min 0 min 86 W/m 10,5 km/h (2 Bft) 100,00 %
21.07.2016 07:12 20,7 C 21,1 C 20,0 C 90 % 0 lf 1012,9 hPa 0,0 l/m 0 min 0 min 82 W/m 8,4 km/h (2 Bft) 97,87 %
21.07.2016 07:14 20,7 C 21,7 C 20,0 C 90 % 0 lf 1013,0 hPa 0,0 l/m 0 min 0 min 78 W/m 6,3 km/h (2 Bft) 95,74 %
21.07.2016 07:16 20,7 C 21,1 C 20,0 C 90 % 0 lf 1013,1 hPa 0,0 l/m 0 min 0 min 73 W/m 4,2 km/h (1 Bft) 95,74 %
21.07.2016 07:18 20,7 C 21,7 C 20,0 C 90 % 0 lf 1013,0 hPa 0,0 l/m 0 min 0 min 74 W/m 4,2 km/h (1 Bft) 93,48 %
21.07.2016 07:20 20,7 C 21,7 C 20,0 C 90 % 0 lf 1013,0 hPa 0,0 l/m 0 min 0 min 80 W/m 2,1 km/h (1 Bft) 95,74 %
21.07.2016 07:22 20,7 C 21,7 C 20,0 C 89 % 0 lf 1013,0 hPa 0,0 l/m 0 min 0 min 89 W/m 4,2 km/h (1 Bft) 95,74 %
21.07.2016 07:24 20,7 C 21,7 C 20,0 C 89 % 0 lf 1013,1 hPa 0,0 l/m 0 min 0 min 99 W/m 6,3 km/h (2 Bft) 95,74 %
21.07.2016 07:26 20,7 C 21,7 C 20,0 C 89 % 0 lf 1013,1 hPa 0,0 l/m 0 min 0 min 95 W/m 4,2 km/h (1 Bft) 95,74 %
21.07.2016 07:28 20,7 C 21,7 C 20,6 C 89 % 0 lf 1013,1 hPa 0,0 l/m 0 min 0 min 89 W/m 4,2 km/h (1 Bft) 95,74 %
21.07.2016 07:30 20,7 C 21,7 C 20,6 C 89 % 0 lf 1013,2 hPa 0,0 l/m 0 min 0 min 90 W/m 6,3 km/h (2 Bft) 93,48 %
21.07.2016 07:32 20,7 C 22,2 C 20,6 C 89 % 0 lf 1013,2 hPa 0,0 l/m 0 min 0 min 91 W/m 4,2 km/h (1 Bft) 93,62 %
21.07.2016 07:34 20,8 C 22,2 C 20,6 C 89 % 0 lf 1013,2 hPa 0,0 l/m 0 min 0 min 89 W/m 6,3 km/h (2 Bft) 91,49 %
21.07.2016 07:36 20,8 C 22,2 C 20,6 C 89 % 0 lf 1013,3 hPa 0,0 l/m 0 min 0 min 95 W/m 4,2 km/h (1 Bft) 91,43 %
21.07.2016 07:38 20,8 C 22,2 C 20,6 C 89 % 0 lf 1013,3 hPa 0,0 l/m 0 min 0 min 106 W/m 4,2 km/h (1 Bft) 95,74 %
21.07.2016 07:40 20,8 C 22,2 C 20,6 C 89 % 0 lf 1013,3 hPa 0,0 l/m 0 min 0 min 119 W/m 4,2 km/h (1 Bft) 93,62 %
21.07.2016 07:42 20,8 C 21,7 C 20,0 C 89 % 0 lf 1013,3 hPa 0,0 l/m 0 min 0 min 107 W/m 4,2 km/h (1 Bft) 94,55 %
21.07.2016 07:44 20,8 C 21,7 C 20,0 C 89 % 0 lf 1013,3 hPa 0,0 l/m 0 min 0 min 92 W/m 8,4 km/h (2 Bft) 95,74 %
21.07.2016 07:46 20,8 C 21,7 C 20,0 C 89 % 0 lf 1013,4 hPa 0,0 l/m 0 min 0 min 99 W/m 8,4 km/h (2 Bft) 95,74 %
21.07.2016 07:48 20,9 C 21,7 C 20,0 C 89 % 0 lf 1013,3 hPa 0,0 l/m 0 min 0 min 132 W/m 8,4 km/h (2 Bft) 95,74 %
21.07.2016 07:50 20,9 C 22,2 C 20,0 C 89 % 0 lf 1013,3 hPa 0,0 l/m 2 min 0 min 184 W/m 8,4 km/h (2 Bft) 93,48 %
21.07.2016 07:52 20,9 C 22,2 C 20,6 C 88 % 0 lf 1013,4 hPa 0,0 l/m 2 min 0 min 237 W/m 6,3 km/h (2 Bft) 95,74 %
21.07.2016 07:54 20,9 C 22,2 C 20,6 C 88 % 0 lf 1013,3 hPa 0,0 l/m 2 min 0 min 237 W/m 4,2 km/h (1 Bft) 95,74 %
21.07.2016 07:56 21,0 C 22,2 C 20,6 C 88 % 0 lf 1013,3 hPa 0,0 l/m 2 min 0 min 238 W/m 6,3 km/h (2 Bft) 95,74 %
21.07.2016 07:58 21,0 C 22,2 C 20,6 C 88 % 0 lf 1013,3 hPa 0,0 l/m 2 min 0 min 228 W/m 4,2 km/h (1 Bft) 91,49 %
21.07.2016 08:00 21,0 C 22,2 C 20,6 C 88 % 0 lf 1013,4 hPa 0,0 l/m 2 min 0 min 243 W/m 6,3 km/h (2 Bft) 95,74 %
21.07.2016 08:02 21,0 C 22,8 C 20,6 C 88 % 0 lf 1013,4 hPa 0,0 l/m 2 min 0 min 265 W/m 10,5 km/h (2 Bft) 95,65 %
21.07.2016 08:04 21,1 C 22,8 C 20,6 C 88 % 0 lf 1013,4 hPa 0,0 l/m 2 min 0 min 286 W/m 10,5 km/h (2 Bft) 95,74 %
21.07.2016 08:06 21,1 C 22,2 C 20,6 C 88 % 0 lf 1013,4 hPa 0,0 l/m 2 min 0 min 246 W/m 14,6 km/h (3 Bft) 94,00 %
21.07.2016 08:08 21,2 C 22,8 C 20,6 C 88 % 0 lf 1013,4 hPa 0,0 l/m 2 min 0 min 204 W/m 12,6 km/h (3 Bft) 91,49 %
21.07.2016 08:10 21,2 C 22,8 C 20,6 C 88 % 0 lf 1013,4 hPa 0,0 l/m 2 min 0 min 239 W/m 8,4 km/h (2 Bft) 95,74 %
21.07.2016 08:12 21,2 C 22,8 C 20,6 C 88 % 0 lf 1013,4 hPa 0,0 l/m 2 min 0 min 238 W/m 8,4 km/h (2 Bft) 97,83 %
21.07.2016 08:14 21,3 C 22,8 C 20,6 C 88 % 0 lf 1013,4 hPa 0,0 l/m 2 min 0 min 284 W/m 8,4 km/h (2 Bft) 97,87 %
21.07.2016 08:16 21,3 C 22,8 C 20,6 C 87 % 0 lf 1013,3 hPa 0,0 l/m 2 min 0 min 284 W/m 12,6 km/h (3 Bft) 97,87 %
21.07.2016 08:18 21,3 C 22,8 C 20,6 C 87 % 0 lf 1013,4 hPa 0,0 l/m 2 min 0 min 283 W/m 16,7 km/h (3 Bft) 95,74 %
21.07.2016 08:20 21,4 C 22,8 C 20,6 C 87 % 0 lf 1013,5 hPa 0,0 l/m 2 min 0 min 287 W/m 18,8 km/h (3 Bft) 97,87 %
21.07.2016 08:22 21,4 C 22,8 C 21,1 C 86 % 0 lf 1013,5 hPa 0,0 l/m 2 min 0 min 325 W/m 16,7 km/h (3 Bft) 97,87 %
21.07.2016 08:24 21,4 C 22,8 C 21,1 C 86 % 0 lf 1013,5 hPa 0,0 l/m 2 min 0 min 327 W/m 12,6 km/h (3 Bft) 95,65 %
21.07.2016 08:26 21,5 C 22,8 C 21,1 C 86 % 0 lf 1013,6 hPa 0,0 l/m 2 min 0 min 317 W/m 14,6 km/h (3 Bft) 91,49 %
21.07.2016 08:28 21,5 C 22,8 C 21,1 C 85 % 0 lf 1013,6 hPa 0,0 l/m 2 min 0 min 322 W/m 12,6 km/h (3 Bft) 97,87 %
21.07.2016 08:30 21,6 C 22,8 C 21,1 C 85 % 0 lf 1013,5 hPa 0,0 l/m 2 min 0 min 354 W/m 16,7 km/h (3 Bft) 97,87 %
21.07.2016 08:32 21,6 C 23,3 C 21,1 C 85 % 0 lf 1013,5 hPa 0,0 l/m 2 min 0 min 385 W/m 12,6 km/h (3 Bft) 97,87 %
21.07.2016 08:34 21,7 C 23,3 C 21,1 C 85 % 0 lf 1013,5 hPa 0,0 l/m 2 min 0 min 391 W/m 12,6 km/h (3 Bft) 97,87 %
21.07.2016 08:36 21,7 C 23,9 C 21,1 C 85 % 0 lf 1013,5 hPa 0,0 l/m 2 min 0 min 362 W/m 12,6 km/h (3 Bft) 97,87 %
21.07.2016 08:38 21,8 C 23,9 C 21,1 C 84 % 0 lf 1013,6 hPa 0,0 l/m 2 min 0 min 399 W/m 12,6 km/h (3 Bft) 95,74 %
21.07.2016 08:40 21,8 C 25,6 C 21,1 C 84 % 0 lf 1013,6 hPa 0,0 l/m 2 min 0 min 406 W/m 16,7 km/h (3 Bft) 97,83 %
21.07.2016 08:42 21,9 C 27,2 C 21,7 C 83 % 0 lf 1013,6 hPa 0,0 l/m 2 min 0 min 440 W/m 12,6 km/h (3 Bft) 93,62 %
21.07.2016 08:44 21,9 C 27,8 C 21,7 C 83 % 0 lf 1013,6 hPa 0,0 l/m 2 min 0 min 443 W/m 14,6 km/h (3 Bft) 97,87 %
21.07.2016 08:46 22,0 C 29,4 C 21,7 C 83 % 0 lf 1013,7 hPa 0,0 l/m 2 min 0 min 437 W/m 16,7 km/h (3 Bft) 95,74 %
21.07.2016 08:48 22,1 C 29,4 C 21,7 C 82 % 0 lf 1013,6 hPa 0,0 l/m 2 min 0 min 445 W/m 18,8 km/h (3 Bft) 100,00 %
21.07.2016 08:50 22,2 C 29,4 C 21,7 C 81 % 0 lf 1013,6 hPa 0,0 l/m 2 min 0 min 459 W/m 23,0 km/h (4 Bft) 100,00 %
21.07.2016 08:52 22,3 C 29,4 C 21,7 C 81 % 0 lf 1013,6 hPa 0,0 l/m 2 min 0 min 465 W/m 18,8 km/h (3 Bft) 100,00 %
21.07.2016 08:54 22,3 C 30,0 C 21,7 C 81 % 0 lf 1013,7 hPa 0,0 l/m 2 min 0 min 464 W/m 18,8 km/h (3 Bft) 93,62 %
21.07.2016 08:56 22,4 C 30,6 C 21,7 C 81 % 0 lf 1013,6 hPa 0,0 l/m 2 min 0 min 453 W/m 16,7 km/h (3 Bft) 100,00 %
21.07.2016 08:58 22,5 C 31,1 C 22,2 C 80 % 0 lf 1013,6 hPa 0,0 l/m 2 min 0 min 453 W/m 16,7 km/h (3 Bft) 95,74 %
21.07.2016 09:00 22,6 C 29,4 C 22,2 C 79 % 0 lf 1013,5 hPa 0,0 l/m 2 min 0 min 462 W/m 14,6 km/h (3 Bft) 97,87 %
21.07.2016 09:02 22,7 C 29,4 C 22,2 C 78 % 0 lf 1013,6 hPa 0,0 l/m 2 min 0 min 455 W/m 14,6 km/h (3 Bft) 97,87 %
21.07.2016 09:04 22,8 C 29,4 C 22,2 C 78 % 0 lf 1013,6 hPa 0,0 l/m 2 min 0 min 470 W/m 14,6 km/h (3 Bft) 95,65 %
21.07.2016 09:06 22,9 C 27,8 C 22,2 C 78 % 0 lf 1013,6 hPa 0,0 l/m 2 min 0 min 481 W/m 12,6 km/h (3 Bft) 97,67 %
21.07.2016 09:08 22,9 C 27,8 C 22,2 C 77 % 0 lf 1013,6 hPa 0,0 l/m 2 min 0 min 492 W/m 18,8 km/h (3 Bft) 95,74 %
21.07.2016 09:10 23,1 C 27,2 C 22,2 C 77 % 0 lf 1013,6 hPa 0,0 l/m 2 min 0 min 481 W/m 12,6 km/h (3 Bft) 95,74 %
21.07.2016 09:12 23,2 C 27,2 C 22,8 C 77 % 0 lf 1013,6 hPa 0,0 l/m 2 min 0 min 486 W/m 12,6 km/h (3 Bft) 95,74 %
21.07.2016 09:14 23,2 C 27,8 C 22,8 C 76 % 0 lf 1013,6 hPa 0,0 l/m 2 min 0 min 509 W/m 16,7 km/h (3 Bft) 97,87 %
21.07.2016 09:16 23,3 C 30,0 C 22,8 C 76 % 0 lf 1013,6 hPa 0,0 l/m 2 min 0 min 534 W/m 14,6 km/h (3 Bft) 97,87 %
21.07.2016 09:18 23,4 C 30,6 C 22,8 C 75 % 0 lf 1013,6 hPa 0,0 l/m 2 min 0 min 548 W/m 14,6 km/h (3 Bft) 97,87 %
21.07.2016 09:20 23,5 C 31,1 C 22,8 C 75 % 0 lf 1013,7 hPa 0,0 l/m 2 min 0 min 533 W/m 18,8 km/h (3 Bft) 97,87 %
21.07.2016 09:22 23,6 C 32,2 C 22,8 C 74 % 0 lf 1013,6 hPa 0,0 l/m 2 min 0 min 557 W/m 16,7 km/h (3 Bft) 95,83 %
21.07.2016 09:24 23,7 C 32,2 C 22,8 C 75 % 0 lf 1013,7 hPa 0,0 l/m 2 min 0 min 557 W/m 14,6 km/h (3 Bft) 95,65 %
21.07.2016 09:26 23,8 C 32,2 C 23,3 C 74 % 0 lf 1013,8 hPa 0,0 l/m 2 min 0 min 538 W/m 12,6 km/h (3 Bft) 97,87 %
21.07.2016 09:28 23,9 C 31,7 C 23,3 C 74 % 0 lf 1013,8 hPa 0,0 l/m 2 min 0 min 528 W/m 29,3 km/h (5 Bft) 97,87 %
21.07.2016 09:30 24,0 C 30,6 C 23,3 C 72 % 0 lf 1013,8 hPa 0,0 l/m 2 min 0 min 483 W/m 18,8 km/h (3 Bft) 95,74 %
21.07.2016 09:32 24,1 C 30,6 C 23,3 C 72 % 0 lf 1013,8 hPa 0,0 l/m 2 min 0 min 534 W/m 18,8 km/h (3 Bft) 97,92 %
21.07.2016 09:34 24,2 C 30,0 C 23,3 C 72 % 0 lf 1013,7 hPa 0,0 l/m 2 min 0 min 493 W/m 16,7 km/h (3 Bft) 95,65 %
21.07.2016 09:36 24,3 C 30,0 C 23,3 C 72 % 0 lf 1013,8 hPa 0,0 l/m 2 min 0 min 395 W/m 18,8 km/h (3 Bft) 95,92 %
21.07.2016 09:38 24,3 C 29,4 C 23,3 C 70 % 0 lf 1013,9 hPa 0,0 l/m 2 min 0 min 414 W/m 25,1 km/h (4 Bft) 97,83 %
21.07.2016 09:40 24,3 C 30,0 C 22,8 C 70 % 0 lf 1013,8 hPa 0,0 l/m 2 min 0 min 426 W/m 23,0 km/h (4 Bft) 97,87 %
21.07.2016 09:42 24,3 C 29,4 C 23,3 C 70 % 0 lf 1013,8 hPa 0,0 l/m 2 min 0 min 385 W/m 18,8 km/h (3 Bft) 95,74 %
21.07.2016 09:44 24,4 C 28,3 C 23,3 C 69 % 0 lf 1013,8 hPa 0,0 l/m 2 min 0 min 418 W/m 20,9 km/h (4 Bft) 100,00 %
21.07.2016 09:46 24,4 C 28,3 C 23,3 C 70 % 0 lf 1013,8 hPa 0,0 l/m 2 min 0 min 434 W/m 18,8 km/h (3 Bft) 100,00 %
21.07.2016 09:48 24,4 C 29,4 C 23,3 C 70 % 0 lf 1013,8 hPa 0,0 l/m 2 min 0 min 429 W/m 14,6 km/h (3 Bft) 97,87 %
21.07.2016 09:50 24,4 C 30,0 C 23,9 C 70 % 0 lf 1013,9 hPa 0,0 l/m 2 min 0 min 452 W/m 16,7 km/h (3 Bft) 95,65 %
21.07.2016 09:52 24,5 C 30,6 C 23,9 C 71 % 0 lf 1013,7 hPa 0,0 l/m 2 min 0 min 481 W/m 18,8 km/h (3 Bft) 97,87 %
21.07.2016 09:54 24,6 C 31,7 C 24,4 C 71 % 0 lf 1013,8 hPa 0,0 l/m 2 min 0 min 482 W/m 10,5 km/h (2 Bft) 95,74 %
21.07.2016 09:56 24,6 C 31,1 C 24,4 C 70 % 0 lf 1013,7 hPa 0,0 l/m 2 min 0 min 519 W/m 10,5 km/h (2 Bft) 100,00 %
21.07.2016 09:58 24,7 C 32,8 C 26,1 C 71 % 0 lf 1013,7 hPa 0,0 l/m 2 min 0 min 601 W/m 16,7 km/h (3 Bft) 95,74 %
21.07.2016 10:00 24,8 C 33,9 C 27,2 C 71 % 0 lf 1013,7 hPa 0,0 l/m 2 min 0 min 604 W/m 10,5 km/h (2 Bft) 97,87 %
21.07.2016 10:02 24,9 C 33,3 C 28,3 C 70 % 0 lf 1013,8 hPa 0,0 l/m 2 min 0 min 572 W/m 10,5 km/h (2 Bft) 100,00 %
21.07.2016 10:04 25,0 C 32,8 C 28,3 C 70 % 0 lf 1013,8 hPa 0,0 l/m 2 min 0 min 536 W/m 16,7 km/h (3 Bft) 97,87 %
21.07.2016 10:06 25,1 C 31,7 C 28,3 C 69 % 0 lf 1013,7 hPa 0,0 l/m 2 min 0 min 563 W/m 14,6 km/h (3 Bft) 97,87 %
21.07.2016 10:08 25,1 C 32,2 C 28,9 C 70 % 0 lf 1013,7 hPa 0,0 l/m 2 min 0 min 535 W/m 10,5 km/h (2 Bft) 100,00 %
21.07.2016 10:10 25,2 C 31,1 C 27,8 C 68 % 0 lf 1013,7 hPa 0,0 l/m 2 min 0 min 481 W/m 20,9 km/h (4 Bft) 97,87 %
21.07.2016 10:14 25,3 C 31,1 C 28,3 C 68 % 0 lf 1013,7 hPa 0,0 l/m 2 min 0 min 499 W/m 16,7 km/h (3 Bft) 98,88 %
21.07.2016 10:16 25,4 C 31,7 C 28,9 C 68 % 0 lf 1013,7 hPa 0,0 l/m 2 min 0 min 564 W/m 20,9 km/h (4 Bft) 97,87 %
21.07.2016 10:18 25,4 C 31,7 C 28,9 C 67 % 0 lf 1013,9 hPa 0,0 l/m 2 min 0 min 608 W/m 23,0 km/h (4 Bft) 97,87 %
21.07.2016 10:20 25,5 C 32,2 C 28,9 C 67 % 0 lf 1013,9 hPa 0,0 l/m 2 min 0 min 626 W/m 20,9 km/h (4 Bft) 95,74 %
21.07.2016 10:22 25,5 C 31,7 C 28,9 C 67 % 0 lf 1013,9 hPa 0,0 l/m 2 min 0 min 644 W/m 23,0 km/h (4 Bft) 91,84 %
21.07.2016 10:24 25,6 C 32,8 C 29,4 C 67 % 0 lf 1013,9 hPa 0,0 l/m 2 min 0 min 652 W/m 16,7 km/h (3 Bft) 87,23 %
21.07.2016 10:26 25,6 C 31,7 C 29,4 C 68 % 0 lf 1013,8 hPa 0,0 l/m 2 min 0 min 636 W/m 18,8 km/h (3 Bft) 95,74 %
21.07.2016 10:28 25,6 C 32,2 C 30,0 C 68 % 0 lf 1013,8 hPa 0,0 l/m 2 min 0 min 628 W/m 14,6 km/h (3 Bft) 93,62 %
21.07.2016 10:30 25,7 C 33,9 C 30,6 C 69 % 0 lf 1013,7 hPa 0,0 l/m 2 min 0 min 652 W/m 18,8 km/h (3 Bft) 93,62 %
21.07.2016 10:32 25,8 C 32,8 C 31,1 C 69 % 0 lf 1013,8 hPa 0,0 l/m 2 min 0 min 690 W/m 25,1 km/h (4 Bft) 95,74 %
21.07.2016 10:34 25,9 C 32,8 C 31,1 C 68 % 0 lf 1013,9 hPa 0,0 l/m 2 min 0 min 701 W/m 20,9 km/h (4 Bft) 95,74 %
21.07.2016 10:37 26,0 C 32,8 C 30,0 C 68 % 0 lf 1013,9 hPa 0,0 l/m 2 min 0 min 662 W/m 27,2 km/h (4 Bft) 95,77 %
21.07.2016 10:38 26,0 C 32,8 C 30,0 C 67 % 0 lf 1013,9 hPa 0,0 l/m 1 min 0 min 624 W/m 14,6 km/h (3 Bft) 95,65 %
21.07.2016 10:40 26,1 C 33,3 C 30,6 C 68 % 0 lf 1013,9 hPa 0,0 l/m 2 min 0 min 638 W/m 14,6 km/h (3 Bft) 89,36 %
21.07.2016 10:42 26,2 C 33,9 C 31,1 C 68 % 0 lf 1013,8 hPa 0,0 l/m 2 min 0 min 670 W/m 12,6 km/h (3 Bft) 91,49 %
21.07.2016 10:44 26,2 C 32,8 C 31,7 C 68 % 0 lf 1013,9 hPa 0,0 l/m 2 min 0 min 593 W/m 12,6 km/h (3 Bft) 91,49 %
21.07.2016 10:46 26,3 C 32,8 C 31,7 C 68 % 0 lf 1013,9 hPa 0,0 l/m 2 min 0 min 530 W/m 14,6 km/h (3 Bft) 93,62 %
21.07.2016 10:48 26,4 C 33,3 C 31,7 C 68 % 0 lf 1013,9 hPa 0,0 l/m 2 min 0 min 644 W/m 12,6 km/h (3 Bft) 91,49 %
21.07.2016 10:50 26,4 C 33,3 C 31,7 C 67 % 0 lf 1013,9 hPa 0,0 l/m 2 min 0 min 697 W/m 18,8 km/h (3 Bft) 93,48 %
21.07.2016 10:52 26,6 C 34,4 C 31,7 C 68 % 0 lf 1013,9 hPa 0,0 l/m 2 min 0 min 702 W/m 12,6 km/h (3 Bft) 93,62 %
21.07.2016 10:54 26,7 C 35,0 C 32,2 C 69 % 0 lf 1013,9 hPa 0,0 l/m 2 min 0 min 714 W/m 14,6 km/h (3 Bft) 93,62 %
21.07.2016 10:56 26,8 C 35,0 C 32,2 C 68 % 0 lf 1013,9 hPa 0,0 l/m 2 min 0 min 731 W/m 16,7 km/h (3 Bft) 95,74 %
21.07.2016 10:58 26,8 C 34,4 C 32,8 C 67 % 0 lf 1013,9 hPa 0,0 l/m 2 min 0 min 724 W/m 16,7 km/h (3 Bft) 95,74 %
21.07.2016 11:00 26,9 C 35,6 C 33,3 C 68 % 0 lf 1013,8 hPa 0,0 l/m 2 min 0 min 720 W/m 12,6 km/h (3 Bft) 93,62 %
21.07.2016 11:02 27,0 C 35,6 C 33,9 C 68 % 0 lf 1013,9 hPa 0,0 l/m 2 min 0 min 723 W/m 14,6 km/h (3 Bft) 97,83 %
21.07.2016 11:04 27,1 C 36,7 C 33,3 C 68 % 0 lf 1013,9 hPa 0,0 l/m 2 min 0 min 726 W/m 18,8 km/h (3 Bft) 95,74 %
21.07.2016 11:06 27,2 C 35,0 C 33,3 C 67 % 0 lf 1013,9 hPa 0,0 l/m 2 min 0 min 752 W/m 14,6 km/h (3 Bft) 91,43 %
21.07.2016 11:08 27,2 C 35,6 C 33,3 C 66 % 0 lf 1013,9 hPa 0,0 l/m 2 min 0 min 751 W/m 18,8 km/h (3 Bft) 95,74 %
21.07.2016 11:10 27,3 C 35,6 C 32,8 C 66 % 0 lf 1013,9 hPa 0,0 l/m 2 min 0 min 751 W/m 20,9 km/h (4 Bft) 93,62 %
21.07.2016 11:12 27,4 C 36,1 C 32,8 C 66 % 0 lf 1013,9 hPa 0,0 l/m 2 min 0 min 756 W/m 12,6 km/h (3 Bft) 93,62 %
21.07.2016 11:14 27,4 C 35,0 C 33,3 C 65 % 0 lf 1013,8 hPa 0,0 l/m 2 min 0 min 766 W/m 12,6 km/h (3 Bft) 93,62 %
21.07.2016 11:16 27,5 C 35,0 C 33,9 C 66 % 0 lf 1013,8 hPa 0,0 l/m 2 min 0 min 764 W/m 16,7 km/h (3 Bft) 95,65 %
21.07.2016 11:18 27,6 C 35,6 C 33,9 C 66 % 0 lf 1013,8 hPa 0,0 l/m 2 min 0 min 767 W/m 12,6 km/h (3 Bft) 97,87 %
21.07.2016 11:20 27,7 C 35,0 C 33,3 C 65 % 0 lf 1013,8 hPa 0,0 l/m 2 min 0 min 768 W/m 16,7 km/h (3 Bft) 97,87 %
21.07.2016 11:22 27,7 C 35,6 C 32,8 C 65 % 0 lf 1013,8 hPa 0,0 l/m 2 min 0 min 770 W/m 16,7 km/h (3 Bft) 97,87 %
21.07.2016 11:24 27,8 C 37,2 C 32,8 C 64 % 0 lf 1013,8 hPa 0,0 l/m 2 min 0 min 776 W/m 14,6 km/h (3 Bft) 97,87 %
21.07.2016 11:26 27,9 C 36,7 C 32,2 C 64 % 0 lf 1013,8 hPa 0,0 l/m 2 min 0 min 782 W/m 16,7 km/h (3 Bft) 97,87 %
21.07.2016 11:28 27,9 C 37,8 C 31,1 C 63 % 0 lf 1013,8 hPa 0,0 l/m 2 min 0 min 783 W/m 12,6 km/h (3 Bft) 95,65 %
21.07.2016 11:30 28,0 C 36,1 C 30,0 C 62 % 0 lf 1013,8 hPa 0,0 l/m 2 min 0 min 789 W/m 18,8 km/h (3 Bft) 95,74 %
21.07.2016 11:32 28,1 C 36,7 C 30,0 C 62 % 0 lf 1013,7 hPa 0,0 l/m 2 min 0 min 787 W/m 12,6 km/h (3 Bft) 92,59 %
21.07.2016 11:34 28,1 C 36,7 C 30,6 C 63 % 0 lf 1013,7 hPa 0,0 l/m 2 min 0 min 785 W/m 14,6 km/h (3 Bft) 95,65 %
21.07.2016 11:36 28,2 C 36,1 C 31,7 C 63 % 0 lf 1013,7 hPa 0,0 l/m 2 min 0 min 791 W/m 14,6 km/h (3 Bft) 96,15 %
21.07.2016 11:38 28,2 C 36,1 C 32,8 C 63 % 0 lf 1013,8 hPa 0,0 l/m 2 min 0 min 794 W/m 20,9 km/h (4 Bft) 97,87 %
21.07.2016 11:40 28,3 C 36,7 C 33,3 C 61 % 0 lf 1013,9 hPa 0,0 l/m 2 min 0 min 802 W/m 18,8 km/h (3 Bft) 93,62 %
21.07.2016 11:42 28,3 C 35,6 C 33,3 C 59 % 0 lf 1013,8 hPa 0,0 l/m 2 min 0 min 804 W/m 16,7 km/h (3 Bft) 97,87 %
21.07.2016 11:44 28,3 C 35,6 C 33,3 C 60 % 0 lf 1013,8 hPa 0,0 l/m 2 min 0 min 805 W/m 16,7 km/h (3 Bft) 97,87 %
21.07.2016 11:46 28,3 C 35,0 C 33,9 C 59 % 0 lf 1013,8 hPa 0,0 l/m 2 min 0 min 808 W/m 14,6 km/h (3 Bft) 95,74 %
21.07.2016 11:48 28,3 C 35,0 C 34,4 C 59 % 0 lf 1013,8 hPa 0,0 l/m 2 min 0 min 807 W/m 12,6 km/h (3 Bft) 97,83 %
21.07.2016 11:50 28,4 C 35,6 C 35,0 C 59 % 0 lf 1013,8 hPa 0,0 l/m 2 min 0 min 809 W/m 16,7 km/h (3 Bft) 91,49 %
21.07.2016 11:52 28,4 C 35,6 C 34,4 C 58 % 0 lf 1013,7 hPa 0,0 l/m 2 min 0 min 804 W/m 14,6 km/h (3 Bft) 97,87 %
21.07.2016 11:54 28,5 C 35,6 C 34,4 C 58 % 0 lf 1013,8 hPa 0,0 l/m 2 min 0 min 802 W/m 16,7 km/h (3 Bft) 95,74 %
21.07.2016 11:56 28,6 C 35,0 C 34,4 C 58 % 0 lf 1013,8 hPa 0,0 l/m 2 min 0 min 815 W/m 16,7 km/h (3 Bft) 97,87 %
21.07.2016 11:58 28,6 C 36,1 C 33,9 C 58 % 0 lf 1013,7 hPa 0,0 l/m 2 min 0 min 816 W/m 16,7 km/h (3 Bft) 95,74 %
21.07.2016 12:00 28,7 C 37,2 C 33,9 C 57 % 0 lf 1013,7 hPa 0,0 l/m 2 min 0 min 813 W/m 18,8 km/h (3 Bft) 97,83 %
21.07.2016 12:02 28,7 C 37,2 C 34,4 C 57 % 0 lf 1013,8 hPa 0,0 l/m 2 min 0 min 821 W/m 16,7 km/h (3 Bft) 93,62 %
21.07.2016 12:04 28,7 C 37,2 C 35,0 C 57 % 0 lf 1013,7 hPa 0,0 l/m 2 min 0 min 823 W/m 16,7 km/h (3 Bft) 93,62 %
21.07.2016 12:06 28,8 C 37,8 C 35,0 C 57 % 0 lf 1013,7 hPa 0,0 l/m 2 min 0 min 829 W/m 14,6 km/h (3 Bft) 97,14 %
21.07.2016 12:08 28,8 C 37,2 C 35,0 C 57 % 0 lf 1013,7 hPa 0,0 l/m 2 min 0 min 826 W/m 18,8 km/h (3 Bft) 97,87 %
21.07.2016 12:10 28,9 C 37,2 C 35,0 C 57 % 0 lf 1013,8 hPa 0,0 l/m 2 min 0 min 823 W/m 12,6 km/h (3 Bft) 93,62 %
21.07.2016 12:12 28,9 C 35,6 C 34,4 C 56 % 0 lf 1013,7 hPa 0,0 l/m 2 min 0 min 838 W/m 18,8 km/h (3 Bft) 95,74 %
21.07.2016 12:14 28,9 C 35,6 C 35,0 C 56 % 0 lf 1013,8 hPa 0,0 l/m 2 min 0 min 839 W/m 14,6 km/h (3 Bft) 100,00 %
21.07.2016 12:16 29,0 C 36,7 C 35,6 C 57 % 0 lf 1013,8 hPa 0,0 l/m 2 min 0 min 838 W/m 12,6 km/h (3 Bft) 100,00 %
21.07.2016 12:18 29,1 C 37,2 C 35,0 C 56 % 0 lf 1013,8 hPa 0,0 l/m 2 min 0 min 839 W/m 14,6 km/h (3 Bft) 97,87 %
21.07.2016 12:20 29,1 C 37,2 C 35,0 C 55 % 0 lf 1013,8 hPa 0,0 l/m 2 min 0 min 772 W/m 12,6 km/h (3 Bft) 95,74 %
21.07.2016 12:22 29,2 C 36,7 C 36,1 C 56 % 0 lf 1013,8 hPa 0,0 l/m 2 min 0 min 747 W/m 8,4 km/h (2 Bft) 95,74 %
21.07.2016 12:24 29,2 C 36,7 C 36,7 C 56 % 0 lf 1013,7 hPa 0,0 l/m 0 min 0 min 255 W/m 12,6 km/h (3 Bft) 91,49 %
21.07.2016 12:26 29,3 C 37,2 C 36,7 C 56 % 0 lf 1013,8 hPa 0,0 l/m 2 min 0 min 407 W/m 14,6 km/h (3 Bft) 97,83 %
21.07.2016 12:28 29,3 C 36,7 C 36,7 C 56 % 0 lf 1013,8 hPa 0,0 l/m 0 min 0 min 334 W/m 18,8 km/h (3 Bft) 95,74 %
21.07.2016 12:30 29,4 C 35,6 C 36,1 C 57 % 0 lf 1013,7 hPa 0,0 l/m 0 min 0 min 221 W/m 16,7 km/h (3 Bft) 95,74 %
21.07.2016 12:32 29,4 C 37,8 C 35,6 C 57 % 0 lf 1013,6 hPa 0,0 l/m 0 min 0 min 195 W/m 14,6 km/h (3 Bft) 96,23 %
21.07.2016 12:34 29,5 C 38,3 C 35,6 C 55 % 0 lf 1013,7 hPa 0,0 l/m 0 min 0 min 301 W/m 18,8 km/h (3 Bft) 97,87 %
21.07.2016 12:36 29,6 C 36,7 C 35,0 C 54 % 0 lf 1013,6 hPa 0,0 l/m 2 min 0 min 548 W/m 12,6 km/h (3 Bft) 96,15 %
21.07.2016 12:38 29,6 C 36,7 C 34,4 C 55 % 0 lf 1013,6 hPa 0,0 l/m 2 min 0 min 689 W/m 12,6 km/h (3 Bft) 95,74 %
21.07.2016 12:40 29,7 C 36,7 C 33,9 C 56 % 0 lf 1013,6 hPa 0,0 l/m 2 min 0 min 754 W/m 14,6 km/h (3 Bft) 93,62 %
21.07.2016 12:42 29,8 C 35,6 C 33,3 C 55 % 0 lf 1013,6 hPa 0,0 l/m 2 min 0 min 803 W/m 18,8 km/h (3 Bft) 97,87 %
21.07.2016 12:44 29,8 C 36,7 C 32,2 C 55 % 0 lf 1013,6 hPa 0,0 l/m 2 min 0 min 824 W/m 18,8 km/h (3 Bft) 97,87 %
21.07.2016 12:46 29,8 C 37,2 C 32,2 C 55 % 0 lf 1013,6 hPa 0,0 l/m 2 min 0 min 847 W/m 12,6 km/h (3 Bft) 95,74 %
21.07.2016 12:48 29,8 C 36,7 C 32,2 C 54 % 0 lf 1013,6 hPa 0,0 l/m 2 min 0 min 849 W/m 14,6 km/h (3 Bft) 97,83 %
21.07.2016 12:50 29,8 C 37,8 C 32,2 C 55 % 0 lf 1013,6 hPa 0,0 l/m 2 min 0 min 844 W/m 16,7 km/h (3 Bft) 97,87 %
21.07.2016 12:52 29,9 C 38,3 C 31,7 C 54 % 0 lf 1013,7 hPa 0,0 l/m 2 min 0 min 849 W/m 16,7 km/h (3 Bft) 97,87 %
21.07.2016 12:54 29,9 C 40,0 C 32,2 C 55 % 0 lf 1013,7 hPa 0,0 l/m 2 min 0 min 855 W/m 12,6 km/h (3 Bft) 95,74 %
21.07.2016 12:56 30,1 C 40,0 C 32,2 C 54 % 0 lf 1013,7 hPa 0,0 l/m 2 min 0 min 870 W/m 16,7 km/h (3 Bft) 97,87 %
21.07.2016 12:58 30,1 C 40,0 C 32,2 C 54 % 0 lf 1013,6 hPa 0,0 l/m 2 min 0 min 879 W/m 14,6 km/h (3 Bft) 97,83 %
21.07.2016 13:00 30,2 C 37,8 C 32,2 C 54 % 0 lf 1013,7 hPa 0,0 l/m 2 min 0 min 881 W/m 14,6 km/h (3 Bft) 100,00 %
21.07.2016 13:02 30,2 C 36,7 C 32,2 C 54 % 0 lf 1013,6 hPa 0,0 l/m 2 min 0 min 889 W/m 16,7 km/h (3 Bft) 100,00 %
21.07.2016 13:04 30,2 C 36,7 C 32,8 C 55 % 0 lf 1013,7 hPa 0,0 l/m 2 min 0 min 877 W/m 18,8 km/h (3 Bft) 100,00 %
21.07.2016 13:06 30,2 C 35,0 C 32,8 C 52 % 0 lf 1013,6 hPa 0,0 l/m 2 min 0 min 877 W/m 18,8 km/h (3 Bft) 100,00 %
21.07.2016 13:08 30,2 C 37,2 C 32,2 C 53 % 0 lf 1013,5 hPa 0,0 l/m 2 min 0 min 878 W/m 16,7 km/h (3 Bft) 97,87 %
21.07.2016 13:10 30,2 C 37,8 C 32,2 C 50 % 0 lf 1013,6 hPa 0,0 l/m 2 min 0 min 882 W/m 20,9 km/h (4 Bft) 97,87 %
21.07.2016 13:12 30,2 C 37,2 C 32,2 C 51 % 0 lf 1013,6 hPa 0,0 l/m 2 min 0 min 871 W/m 16,7 km/h (3 Bft) 97,87 %
21.07.2016 13:14 30,3 C 38,3 C 32,2 C 53 % 0 lf 1013,7 hPa 0,0 l/m 2 min 0 min 857 W/m 14,6 km/h (3 Bft) 97,83 %
21.07.2016 13:16 30,3 C 40,0 C 32,2 C 53 % 0 lf 1013,6 hPa 0,0 l/m 2 min 0 min 808 W/m 10,5 km/h (2 Bft) 95,74 %
21.07.2016 13:18 30,4 C 40,0 C 32,2 C 52 % 0 lf 1013,6 hPa 0,0 l/m 2 min 0 min 760 W/m 14,6 km/h (3 Bft) 97,87 %
21.07.2016 13:20 30,4 C 39,4 C 32,2 C 52 % 0 lf 1013,6 hPa 0,0 l/m 2 min 0 min 811 W/m 16,7 km/h (3 Bft) 97,87 %
21.07.2016 13:22 30,5 C 38,9 C 32,2 C 52 % 0 lf 1013,6 hPa 0,0 l/m 2 min 0 min 848 W/m 18,8 km/h (3 Bft) 100,00 %
21.07.2016 13:24 30,6 C 38,9 C 32,2 C 52 % 0 lf 1013,6 hPa 0,0 l/m 2 min 0 min 851 W/m 23,0 km/h (4 Bft) 97,87 %
21.07.2016 13:26 30,6 C 38,9 C 32,2 C 53 % 0 lf 1013,6 hPa 0,0 l/m 2 min 0 min 856 W/m 14,6 km/h (3 Bft) 100,00 %
21.07.2016 13:28 30,7 C 37,8 C 32,2 C 51 % 0 lf 1013,6 hPa 0,0 l/m 2 min 0 min 846 W/m 14,6 km/h (3 Bft) 95,74 %
21.07.2016 13:30 30,7 C 38,3 C 32,2 C 51 % 0 lf 1013,6 hPa 0,0 l/m 2 min 0 min 871 W/m 16,7 km/h (3 Bft) 95,65 %
21.07.2016 13:32 30,7 C 37,2 C 31,7 C 51 % 0 lf 1013,6 hPa 0,0 l/m 2 min 0 min 845 W/m 23,0 km/h (4 Bft) 93,75 %
21.07.2016 13:34 30,7 C 36,1 C 31,7 C 52 % 0 lf 1013,7 hPa 0,0 l/m 2 min 0 min 793 W/m 23,0 km/h (4 Bft) 95,74 %
21.07.2016 13:36 30,7 C 36,7 C 31,7 C 51 % 0 lf 1013,6 hPa 0,0 l/m 2 min 0 min 767 W/m 18,8 km/h (3 Bft) 98,00 %
21.07.2016 13:38 30,7 C 36,1 C 31,7 C 50 % 0 lf 1013,7 hPa 0,0 l/m 2 min 0 min 784 W/m 14,6 km/h (3 Bft) 95,74 %
21.07.2016 13:40 30,6 C 35,6 C 31,7 C 50 % 0 lf 1013,7 hPa 0,0 l/m 2 min 0 min 804 W/m 16,7 km/h (3 Bft) 97,83 %
21.07.2016 13:42 30,6 C 37,2 C 31,7 C 51 % 0 lf 1013,7 hPa 0,0 l/m 2 min 0 min 830 W/m 8,4 km/h (2 Bft) 95,83 %
21.07.2016 13:44 30,6 C 36,7 C 31,7 C 51 % 0 lf 1013,7 hPa 0,0 l/m 2 min 0 min 837 W/m 18,8 km/h (3 Bft) 97,87 %
21.07.2016 13:46 30,6 C 37,2 C 31,7 C 52 % 0 lf 1013,7 hPa 0,0 l/m 2 min 0 min 888 W/m 23,0 km/h (4 Bft) 95,74 %
21.07.2016 13:48 30,6 C 37,8 C 31,7 C 52 % 0 lf 1013,7 hPa 0,0 l/m 2 min 0 min 890 W/m 23,0 km/h (4 Bft) 97,87 %
21.07.2016 13:50 30,7 C 39,4 C 31,7 C 52 % 0 lf 1013,6 hPa 0,0 l/m 2 min 0 min 892 W/m 14,6 km/h (3 Bft) 95,74 %
21.07.2016 13:52 30,7 C 39,4 C 32,2 C 53 % 0 lf 1013,7 hPa 0,0 l/m 2 min 0 min 894 W/m 12,6 km/h (3 Bft) 97,83 %
21.07.2016 13:54 30,8 C 39,4 C 32,2 C 53 % 0 lf 1013,7 hPa 0,0 l/m 2 min 0 min 867 W/m 23,0 km/h (4 Bft) 97,87 %
21.07.2016 13:56 30,8 C 37,2 C 31,7 C 52 % 0 lf 1013,7 hPa 0,0 l/m 2 min 0 min 857 W/m 10,5 km/h (2 Bft) 97,87 %
21.07.2016 13:58 30,8 C 37,8 C 32,2 C 53 % 0 lf 1013,7 hPa 0,0 l/m 2 min 0 min 842 W/m 16,7 km/h (3 Bft) 95,74 %
21.07.2016 14:00 30,9 C 38,3 C 32,2 C 53 % 0 lf 1013,7 hPa 0,0 l/m 2 min 0 min 825 W/m 16,7 km/h (3 Bft) 93,62 %
21.07.2016 14:02 30,9 C 38,9 C 32,8 C 54 % 0 lf 1013,7 hPa 0,0 l/m 2 min 0 min 852 W/m 14,6 km/h (3 Bft) 97,87 %
21.07.2016 14:04 31,0 C 39,4 C 33,3 C 52 % 0 lf 1013,7 hPa 0,0 l/m 2 min 0 min 863 W/m 16,7 km/h (3 Bft) 91,49 %
21.07.2016 14:06 31,0 C 38,9 C 33,9 C 52 % 0 lf 1013,7 hPa 0,0 l/m 2 min 0 min 871 W/m 12,6 km/h (3 Bft) 89,36 %
21.07.2016 14:08 31,0 C 38,9 C 34,4 C 52 % 0 lf 1013,7 hPa 0,0 l/m 2 min 0 min 881 W/m 8,4 km/h (2 Bft) 95,65 %
21.07.2016 14:10 31,1 C 39,4 C 35,0 C 55 % 0 lf 1013,7 hPa 0,0 l/m 2 min 0 min 881 W/m 10,5 km/h (2 Bft) 93,62 %
21.07.2016 14:12 31,1 C 38,9 C 35,6 C 55 % 0 lf 1013,7 hPa 0,0 l/m 2 min 0 min 804 W/m 14,6 km/h (3 Bft) 91,49 %
21.07.2016 14:14 31,1 C 40,0 C 36,1 C 55 % 0 lf 1013,7 hPa 0,0 l/m 2 min 0 min 854 W/m 12,6 km/h (3 Bft) 93,62 %
21.07.2016 14:16 31,2 C 39,4 C 36,7 C 54 % 0 lf 1013,7 hPa 0,0 l/m 2 min 0 min 866 W/m 14,6 km/h (3 Bft) 93,62 %
21.07.2016 14:18 31,2 C 38,9 C 37,2 C 54 % 0 lf 1013,7 hPa 0,0 l/m 2 min 0 min 854 W/m 14,6 km/h (3 Bft) 93,62 %
21.07.2016 14:20 31,2 C 37,8 C 37,8 C 54 % 0 lf 1013,7 hPa 0,0 l/m 2 min 0 min 834 W/m 16,7 km/h (3 Bft) 93,48 %
21.07.2016 14:22 31,2 C 38,3 C 37,8 C 54 % 0 lf 1013,7 hPa 0,0 l/m 2 min 0 min 775 W/m 14,6 km/h (3 Bft) 93,62 %
21.07.2016 14:24 31,2 C 38,3 C 37,8 C 53 % 0 lf 1013,6 hPa 0,0 l/m 2 min 0 min 746 W/m 10,5 km/h (2 Bft) 93,62 %
21.07.2016 14:26 31,3 C 37,8 C 37,2 C 53 % 0 lf 1013,7 hPa 0,0 l/m 2 min 0 min 711 W/m 18,8 km/h (3 Bft) 95,74 %
21.07.2016 14:28 31,3 C 37,8 C 37,2 C 52 % 0 lf 1013,7 hPa 0,0 l/m 2 min 0 min 724 W/m 18,8 km/h (3 Bft) 93,62 %
21.07.2016 14:30 31,3 C 37,8 C 37,2 C 53 % 0 lf 1013,7 hPa 0,0 l/m 2 min 0 min 773 W/m 14,6 km/h (3 Bft) 91,49 %
21.07.2016 14:32 31,2 C 37,2 C 37,8 C 52 % 0 lf 1013,7 hPa 0,0 l/m 2 min 0 min 704 W/m 6,3 km/h (2 Bft) 91,43 %
21.07.2016 14:34 31,2 C 37,8 C 38,3 C 54 % 0 lf 1013,7 hPa 0,0 l/m 2 min 0 min 852 W/m 14,6 km/h (3 Bft) 93,62 %
21.07.2016 14:36 31,2 C 38,3 C 37,8 C 53 % 0 lf 1013,6 hPa 0,0 l/m 2 min 0 min 857 W/m 18,8 km/h (3 Bft) 94,55 %
21.07.2016 14:38 31,2 C 37,2 C 38,9 C 54 % 0 lf 1013,7 hPa 0,0 l/m 2 min 0 min 847 W/m 16,7 km/h (3 Bft) 93,62 %
21.07.2016 14:40 31,2 C 37,2 C 39,4 C 53 % 0 lf 1013,8 hPa 0,0 l/m 2 min 0 min 851 W/m 16,7 km/h (3 Bft) 95,65 %
21.07.2016 14:42 31,2 C 36,7 C 39,4 C 53 % 0 lf 1013,6 hPa 0,0 l/m 2 min 0 min 853 W/m 12,6 km/h (3 Bft) 89,36 %
21.07.2016 14:44 31,2 C 37,8 C 39,4 C 53 % 0 lf 1013,6 hPa 0,0 l/m 2 min 0 min 842 W/m 16,7 km/h (3 Bft) 93,62 %
21.07.2016 14:46 31,2 C 37,2 C 40,0 C 53 % 0 lf 1013,6 hPa 0,0 l/m 2 min 0 min 841 W/m 12,6 km/h (3 Bft) 91,49 %
21.07.2016 14:48 31,2 C 38,3 C 39,4 C 52 % 0 lf 1013,6 hPa 0,0 l/m 2 min 0 min 838 W/m 12,6 km/h (3 Bft) 95,74 %
21.07.2016 14:50 31,2 C 39,4 C 40,0 C 53 % 0 lf 1013,6 hPa 0,0 l/m 2 min 0 min 831 W/m 14,6 km/h (3 Bft) 97,87 %
21.07.2016 14:52 31,2 C 38,9 C 38,9 C 52 % 0 lf 1013,6 hPa 0,0 l/m 2 min 0 min 836 W/m 12,6 km/h (3 Bft) 97,83 %
21.07.2016 14:54 31,2 C 39,4 C 39,4 C 53 % 0 lf 1013,6 hPa 0,0 l/m 2 min 0 min 828 W/m 12,6 km/h (3 Bft) 93,62 %
21.07.2016 14:56 31,2 C 38,3 C 39,4 C 54 % 0 lf 1013,6 hPa 0,0 l/m 2 min 0 min 801 W/m 16,7 km/h (3 Bft) 95,74 %
21.07.2016 14:58 31,2 C 37,8 C 39,4 C 55 % 0 lf 1013,6 hPa 0,0 l/m 2 min 0 min 802 W/m 10,5 km/h (2 Bft) 95,74 %
21.07.2016 15:00 31,2 C 37,8 C 40,0 C 54 % 0 lf 1013,6 hPa 0,0 l/m 2 min 0 min 824 W/m 16,7 km/h (3 Bft) 97,87 %
21.07.2016 15:02 31,2 C 38,3 C 39,4 C 54 % 0 lf 1013,5 hPa 0,0 l/m 2 min 0 min 829 W/m 18,8 km/h (3 Bft) 95,65 %
21.07.2016 15:04 31,2 C 36,7 C 37,2 C 54 % 0 lf 1013,5 hPa 0,0 l/m 2 min 0 min 830 W/m 20,9 km/h (4 Bft) 95,74 %
21.07.2016 15:06 31,1 C 34,4 C 34,4 C 53 % 0 lf 1013,4 hPa 0,0 l/m 0 min 0 min 314 W/m 25,1 km/h (4 Bft) 97,87 %
21.07.2016 15:08 31,0 C 33,3 C 32,2 C 53 % 0 lf 1013,5 hPa 0,0 l/m 0 min 0 min 216 W/m 18,8 km/h (3 Bft) 97,87 %
21.07.2016 15:10 30,9 C 34,4 C 33,9 C 53 % 0 lf 1013,5 hPa 0,0 l/m 2 min 0 min 620 W/m 20,9 km/h (4 Bft) 95,74 %
21.07.2016 15:12 30,7 C 35,6 C 35,0 C 53 % 0 lf 1013,4 hPa 0,0 l/m 2 min 0 min 807 W/m 23,0 km/h (4 Bft) 95,74 %
21.07.2016 15:14 30,6 C 36,1 C 36,1 C 54 % 0 lf 1013,4 hPa 0,0 l/m 2 min 0 min 802 W/m 18,8 km/h (3 Bft) 93,62 %
21.07.2016 15:16 30,5 C 36,1 C 36,7 C 54 % 0 lf 1013,4 hPa 0,0 l/m 2 min 0 min 802 W/m 23,0 km/h (4 Bft) 95,65 %
21.07.2016 15:18 30,4 C 36,7 C 36,1 C 53 % 0 lf 1013,4 hPa 0,0 l/m 2 min 0 min 799 W/m 23,0 km/h (4 Bft) 95,74 %
21.07.2016 15:20 30,3 C 37,2 C 37,2 C 54 % 0 lf 1013,4 hPa 0,0 l/m 2 min 0 min 796 W/m 14,6 km/h (3 Bft) 97,87 %
21.07.2016 15:22 30,3 C 38,3 C 38,3 C 55 % 0 lf 1013,3 hPa 0,0 l/m 2 min 0 min 795 W/m 18,8 km/h (3 Bft) 97,87 %
21.07.2016 15:24 30,3 C 38,3 C 38,3 C 55 % 0 lf 1013,3 hPa 0,0 l/m 2 min 0 min 790 W/m 14,6 km/h (3 Bft) 95,74 %
21.07.2016 15:26 30,3 C 37,8 C 38,3 C 55 % 0 lf 1013,3 hPa 0,0 l/m 2 min 0 min 785 W/m 14,6 km/h (3 Bft) 97,83 %
21.07.2016 15:28 30,3 C 37,8 C 39,4 C 58 % 0 lf 1013,3 hPa 0,0 l/m 2 min 0 min 781 W/m 14,6 km/h (3 Bft) 97,87 %
21.07.2016 15:30 30,4 C 38,3 C 40,0 C 56 % 0 lf 1013,3 hPa 0,0 l/m 2 min 0 min 784 W/m 16,7 km/h (3 Bft) 95,74 %
21.07.2016 15:32 30,4 C 37,8 C 40,0 C 55 % 0 lf 1013,3 hPa 0,0 l/m 2 min 0 min 775 W/m 18,8 km/h (3 Bft) 97,92 %
21.07.2016 15:34 30,5 C 37,8 C 38,3 C 54 % 0 lf 1013,4 hPa 0,0 l/m 2 min 0 min 775 W/m 14,6 km/h (3 Bft) 97,87 %
21.07.2016 15:36 30,6 C 38,3 C 39,4 C 55 % 0 lf 1013,3 hPa 0,0 l/m 2 min 0 min 774 W/m 12,6 km/h (3 Bft) 97,96 %
21.07.2016 15:38 30,6 C 37,2 C 40,0 C 56 % 0 lf 1013,3 hPa 0,0 l/m 2 min 0 min 771 W/m 6,3 km/h (2 Bft) 97,87 %
21.07.2016 15:40 30,7 C 37,8 C 40,6 C 55 % 0 lf 1013,2 hPa 0,0 l/m 2 min 0 min 768 W/m 10,5 km/h (2 Bft) 97,87 %
21.07.2016 15:42 30,8 C 38,3 C 40,6 C 55 % 0 lf 1013,2 hPa 0,0 l/m 2 min 0 min 766 W/m 16,7 km/h (3 Bft) 95,65 %
21.07.2016 15:44 30,8 C 38,9 C 41,1 C 55 % 0 lf 1013,2 hPa 0,0 l/m 2 min 0 min 777 W/m 14,6 km/h (3 Bft) 100,00 %
21.07.2016 15:46 30,9 C 39,4 C 41,1 C 56 % 0 lf 1013,2 hPa 0,0 l/m 2 min 0 min 772 W/m 10,5 km/h (2 Bft) 93,62 %
21.07.2016 15:48 31,0 C 38,3 C 40,6 C 55 % 0 lf 1013,2 hPa 0,0 l/m 2 min 0 min 735 W/m 18,8 km/h (3 Bft) 100,00 %
21.07.2016 15:50 31,1 C 37,8 C 40,0 C 54 % 0 lf 1013,2 hPa 0,0 l/m 2 min 0 min 736 W/m 23,0 km/h (4 Bft) 95,74 %
21.07.2016 15:52 31,1 C 37,2 C 39,4 C 55 % 0 lf 1013,2 hPa 0,0 l/m 2 min 0 min 706 W/m 16,7 km/h (3 Bft) 97,87 %
21.07.2016 15:54 31,2 C 37,2 C 39,4 C 54 % 0 lf 1013,2 hPa 0,0 l/m 2 min 0 min 669 W/m 18,8 km/h (3 Bft) 100,00 %
21.07.2016 15:56 31,2 C 36,7 C 39,4 C 53 % 0 lf 1013,2 hPa 0,0 l/m 2 min 0 min 658 W/m 12,6 km/h (3 Bft) 97,87 %
21.07.2016 15:58 31,2 C 37,2 C 38,9 C 53 % 0 lf 1013,2 hPa 0,0 l/m 2 min 0 min 618 W/m 14,6 km/h (3 Bft) 97,87 %
21.07.2016 16:00 31,2 C 37,2 C 38,9 C 53 % 0 lf 1013,2 hPa 0,0 l/m 2 min 0 min 647 W/m 12,6 km/h (3 Bft) 97,83 %
21.07.2016 16:02 31,2 C 36,1 C 38,9 C 52 % 0 lf 1013,2 hPa 0,0 l/m 2 min 0 min 678 W/m 12,6 km/h (3 Bft) 95,74 %
21.07.2016 16:04 31,2 C 36,1 C 39,4 C 52 % 0 lf 1013,2 hPa 0,0 l/m 2 min 0 min 731 W/m 20,9 km/h (4 Bft) 95,74 %
21.07.2016 16:06 31,2 C 37,2 C 39,4 C 52 % 0 lf 1013,2 hPa 0,0 l/m 2 min 0 min 756 W/m 14,6 km/h (3 Bft) 97,96 %
21.07.2016 16:08 31,2 C 37,8 C 38,9 C 52 % 0 lf 1013,2 hPa 0,0 l/m 2 min 0 min 731 W/m 14,6 km/h (3 Bft) 93,62 %
21.07.2016 16:10 31,2 C 37,8 C 40,0 C 52 % 0 lf 1013,2 hPa 0,0 l/m 2 min 0 min 731 W/m 14,6 km/h (3 Bft) 97,87 %
21.07.2016 16:12 31,2 C 37,2 C 39,4 C 51 % 0 lf 1013,2 hPa 0,0 l/m 2 min 0 min 734 W/m 20,9 km/h (4 Bft) 97,87 %
21.07.2016 16:14 31,2 C 37,8 C 39,4 C 51 % 0 lf 1013,2 hPa 0,0 l/m 2 min 0 min 708 W/m 16,7 km/h (3 Bft) 97,87 %
21.07.2016 16:16 31,2 C 37,8 C 40,0 C 51 % 0 lf 1013,2 hPa 0,0 l/m 2 min 0 min 704 W/m 14,6 km/h (3 Bft) 97,83 %
21.07.2016 16:18 31,2 C 36,7 C 38,3 C 52 % 0 lf 1013,2 hPa 0,0 l/m 2 min 0 min 715 W/m 12,6 km/h (3 Bft) 97,87 %
21.07.2016 16:20 31,2 C 35,0 C 36,7 C 51 % 0 lf 1013,2 hPa 0,0 l/m 2 min 0 min 396 W/m 6,3 km/h (2 Bft) 91,43 %
21.07.2016 16:22 31,2 C 34,4 C 35,0 C 52 % 0 lf 1013,2 hPa 0,0 l/m 0 min 0 min 281 W/m 8,4 km/h (2 Bft) 95,74 %
21.07.2016 16:24 31,1 C 34,4 C 35,0 C 52 % 0 lf 1013,2 hPa 0,0 l/m 2 min 0 min 364 W/m 8,4 km/h (2 Bft) 100,00 %
21.07.2016 16:26 31,1 C 35,0 C 35,6 C 52 % 0 lf 1013,2 hPa 0,0 l/m 2 min 0 min 538 W/m 10,5 km/h (2 Bft) 97,87 %
21.07.2016 16:28 31,1 C 35,0 C 37,2 C 53 % 0 lf 1013,2 hPa 0,0 l/m 2 min 0 min 640 W/m 8,4 km/h (2 Bft) 95,74 %
21.07.2016 16:30 31,1 C 35,6 C 36,7 C 53 % 0 lf 1013,1 hPa 0,0 l/m 2 min 0 min 584 W/m 14,6 km/h (3 Bft) 97,87 %
21.07.2016 16:32 31,0 C 34,4 C 35,0 C 54 % 0 lf 1013,1 hPa 0,0 l/m 0 min 0 min 265 W/m 14,6 km/h (3 Bft) 97,83 %
21.07.2016 16:34 30,9 C 33,3 C 32,2 C 53 % 0 lf 1013,2 hPa 0,0 l/m 0 min 0 min 254 W/m 14,6 km/h (3 Bft) 95,74 %
21.07.2016 16:36 30,9 C 32,8 C 31,7 C 53 % 0 lf 1013,1 hPa 0,0 l/m 0 min 0 min 259 W/m 12,6 km/h (3 Bft) 98,25 %
21.07.2016 16:38 30,8 C 31,7 C 31,7 C 55 % 0 lf 1013,1 hPa 0,0 l/m 0 min 0 min 268 W/m 6,3 km/h (2 Bft) 97,87 %
21.07.2016 16:40 30,7 C 31,7 C 31,7 C 54 % 0 lf 1013,1 hPa 0,0 l/m 0 min 0 min 252 W/m 6,3 km/h (2 Bft) 97,87 %
21.07.2016 16:42 30,6 C 32,2 C 31,1 C 54 % 0 lf 1013,2 hPa 0,0 l/m 0 min 0 min 264 W/m 6,3 km/h (2 Bft) 97,87 %
21.07.2016 16:44 30,6 C 32,8 C 31,7 C 54 % 0 lf 1013,3 hPa 0,0 l/m 0 min 0 min 325 W/m 10,5 km/h (2 Bft) 97,87 %
21.07.2016 16:46 30,5 C 33,9 C 32,8 C 54 % 0 lf 1013,3 hPa 0,0 l/m 0 min 0 min 315 W/m 8,4 km/h (2 Bft) 95,65 %
21.07.2016 16:48 30,4 C 33,9 C 33,3 C 55 % 0 lf 1013,2 hPa 0,0 l/m 2 min 0 min 493 W/m 10,5 km/h (2 Bft) 97,87 %
21.07.2016 16:50 30,4 C 35,6 C 33,9 C 56 % 0 lf 1013,3 hPa 0,0 l/m 2 min 0 min 641 W/m 10,5 km/h (2 Bft) 97,87 %
21.07.2016 16:52 30,4 C 35,0 C 33,9 C 54 % 0 lf 1013,3 hPa 0,0 l/m 2 min 0 min 645 W/m 10,5 km/h (2 Bft) 95,83 %
21.07.2016 16:54 30,4 C 35,0 C 33,3 C 54 % 0 lf 1013,3 hPa 0,0 l/m 2 min 0 min 552 W/m 16,7 km/h (3 Bft) 97,87 %
21.07.2016 16:56 30,4 C 35,0 C 33,3 C 54 % 0 lf 1013,3 hPa 0,0 l/m 2 min 0 min 437 W/m 14,6 km/h (3 Bft) 95,74 %
21.07.2016 16:58 30,4 C 35,0 C 32,8 C 54 % 0 lf 1013,3 hPa 0,0 l/m 2 min 0 min 433 W/m 12,6 km/h (3 Bft) 95,65 %
21.07.2016 17:00 30,5 C 34,4 C 32,8 C 55 % 0 lf 1013,3 hPa 0,0 l/m 2 min 0 min 520 W/m 10,5 km/h (2 Bft) 93,62 %
21.07.2016 17:02 30,6 C 34,4 C 31,7 C 53 % 0 lf 1013,4 hPa 0,0 l/m 0 min 0 min 244 W/m 12,6 km/h (3 Bft) 95,74 %
21.07.2016 17:04 30,5 C 33,3 C 31,1 C 54 % 0 lf 1013,5 hPa 0,0 l/m 0 min 0 min 308 W/m 8,4 km/h (2 Bft) 95,74 %
21.07.2016 17:06 30,5 C 32,8 C 30,6 C 53 % 0 lf 1013,5 hPa 0,0 l/m 0 min 0 min 221 W/m 12,6 km/h (3 Bft) 94,29 %
21.07.2016 17:08 30,4 C 32,2 C 30,0 C 53 % 0 lf 1013,6 hPa 0,0 l/m 0 min 0 min 239 W/m 12,6 km/h (3 Bft) 95,74 %
21.07.2016 17:10 30,3 C 32,8 C 30,6 C 52 % 0 lf 1013,6 hPa 0,0 l/m 0 min 0 min 290 W/m 12,6 km/h (3 Bft) 93,62 %
21.07.2016 17:12 30,3 C 32,2 C 30,6 C 53 % 0 lf 1013,6 hPa 0,0 l/m 0 min 0 min 290 W/m 8,4 km/h (2 Bft) 95,74 %
21.07.2016 17:14 30,3 C 31,7 C 30,6 C 54 % 0 lf 1013,6 hPa 0,0 l/m 0 min 0 min 269 W/m 12,6 km/h (3 Bft) 93,62 %
21.07.2016 17:16 30,2 C 31,7 C 30,0 C 53 % 0 lf 1013,6 hPa 0,0 l/m 2 min 0 min 320 W/m 12,6 km/h (3 Bft) 93,62 %
21.07.2016 17:18 30,1 C 32,8 C 30,0 C 54 % 0 lf 1013,6 hPa 0,0 l/m 2 min 0 min 453 W/m 10,5 km/h (2 Bft) 93,48 %
21.07.2016 17:20 30,1 C 33,3 C 30,6 C 54 % 0 lf 1013,7 hPa 0,0 l/m 2 min 0 min 553 W/m 10,5 km/h (2 Bft) 93,62 %
21.07.2016 17:22 30,1 C 34,4 C 31,1 C 54 % 0 lf 1013,7 hPa 0,0 l/m 2 min 0 min 579 W/m 8,4 km/h (2 Bft) 95,74 %
21.07.2016 17:24 30,1 C 35,6 C 31,7 C 55 % 0 lf 1013,8 hPa 0,0 l/m 2 min 0 min 568 W/m 6,3 km/h (2 Bft) 97,87 %
21.07.2016 17:26 30,1 C 35,6 C 31,1 C 54 % 0 lf 1013,7 hPa 0,0 l/m 2 min 0 min 557 W/m 10,5 km/h (2 Bft) 93,62 %
21.07.2016 17:28 30,1 C 35,0 C 31,7 C 55 % 0 lf 1013,8 hPa 0,0 l/m 2 min 0 min 534 W/m 4,2 km/h (1 Bft) 93,62 %
21.07.2016 17:30 30,1 C 35,0 C 31,7 C 55 % 0 lf 1013,7 hPa 0,0 l/m 2 min 0 min 486 W/m 10,5 km/h (2 Bft) 91,30 %
21.07.2016 17:32 30,1 C 34,4 C 31,7 C 55 % 0 lf 1013,7 hPa 0,0 l/m 2 min 0 min 422 W/m 12,6 km/h (3 Bft) 95,74 %
21.07.2016 17:34 30,1 C 33,9 C 31,1 C 55 % 0 lf 1013,7 hPa 0,0 l/m 2 min 0 min 375 W/m 12,6 km/h (3 Bft) 95,74 %
21.07.2016 17:36 30,1 C 34,4 C 30,6 C 56 % 0 lf 1013,9 hPa 0,0 l/m 2 min 0 min 464 W/m 8,4 km/h (2 Bft) 94,44 %
21.07.2016 17:38 30,1 C 34,4 C 30,6 C 56 % 0 lf 1013,9 hPa 0,0 l/m 2 min 0 min 472 W/m 12,6 km/h (3 Bft) 97,87 %
21.07.2016 17:40 30,1 C 32,8 C 30,6 C 56 % 0 lf 1013,8 hPa 0,0 l/m 2 min 0 min 315 W/m 14,6 km/h (3 Bft) 95,74 %
21.07.2016 17:42 30,1 C 32,2 C 30,0 C 57 % 0 lf 1013,9 hPa 0,0 l/m 0 min 0 min 269 W/m 10,5 km/h (2 Bft) 95,74 %
21.07.2016 17:44 30,1 C 31,7 C 30,0 C 57 % 0 lf 1013,8 hPa 0,0 l/m 0 min 0 min 233 W/m 12,6 km/h (3 Bft) 91,49 %
21.07.2016 17:46 30,0 C 31,1 C 29,4 C 57 % 0 lf 1013,8 hPa 0,0 l/m 0 min 0 min 215 W/m 12,6 km/h (3 Bft) 95,65 %
21.07.2016 17:48 29,9 C 31,1 C 29,4 C 57 % 0 lf 1013,9 hPa 0,0 l/m 0 min 0 min 226 W/m 12,6 km/h (3 Bft) 100,00 %
21.07.2016 17:50 29,9 C 31,1 C 29,4 C 57 % 0 lf 1014,0 hPa 0,0 l/m 0 min 0 min 211 W/m 10,5 km/h (2 Bft) 95,74 %
21.07.2016 17:52 29,8 C 30,6 C 29,4 C 58 % 0 lf 1013,9 hPa 0,0 l/m 0 min 0 min 199 W/m 10,5 km/h (2 Bft) 97,87 %
21.07.2016 17:54 29,8 C 31,1 C 29,4 C 58 % 0 lf 1014,0 hPa 0,0 l/m 0 min 0 min 228 W/m 12,6 km/h (3 Bft) 95,74 %
21.07.2016 17:56 29,8 C 30,6 C 28,9 C 57 % 0 lf 1014,0 hPa 0,0 l/m 0 min 0 min 195 W/m 14,6 km/h (3 Bft) 97,87 %
21.07.2016 17:58 29,7 C 30,6 C 28,9 C 56 % 0 lf 1014,0 hPa 0,0 l/m 0 min 0 min 182 W/m 8,4 km/h (2 Bft) 97,83 %
21.07.2016 18:00 29,6 C 30,6 C 28,3 C 57 % 0 lf 1014,1 hPa 0,0 l/m 0 min 0 min 180 W/m 10,5 km/h (2 Bft) 97,87 %
21.07.2016 18:02 29,6 C 30,6 C 28,9 C 57 % 0 lf 1014,0 hPa 0,0 l/m 0 min 0 min 183 W/m 8,4 km/h (2 Bft) 91,67 %
21.07.2016 18:06 29,4 C 30,6 C 28,9 C 58 % 0 lf 1014,0 hPa 0,0 l/m 0 min 0 min 197 W/m 10,5 km/h (2 Bft) 96,84 %
21.07.2016 18:08 29,4 C 30,6 C 28,9 C 57 % 0 lf 1014,0 hPa 0,0 l/m 0 min 0 min 228 W/m 10,5 km/h (2 Bft) 93,62 %
21.07.2016 18:10 29,4 C 31,1 C 28,9 C 58 % 0 lf 1014,0 hPa 0,0 l/m 2 min 0 min 242 W/m 8,4 km/h (2 Bft) 97,83 %
21.07.2016 18:12 29,3 C 30,6 C 28,9 C 57 % 0 lf 1014,0 hPa 0,0 l/m 2 min 0 min 298 W/m 8,4 km/h (2 Bft) 97,87 %
21.07.2016 18:14 29,3 C 31,1 C 28,9 C 57 % 0 lf 1014,0 hPa 0,0 l/m 2 min 0 min 361 W/m 6,3 km/h (2 Bft) 97,87 %
21.07.2016 18:16 29,3 C 31,1 C 28,9 C 57 % 0 lf 1014,0 hPa 0,0 l/m 2 min 0 min 269 W/m 10,5 km/h (2 Bft) 95,74 %
21.07.2016 18:18 29,2 C 31,1 C 28,9 C 58 % 0 lf 1013,9 hPa 0,0 l/m 0 min 0 min 217 W/m 8,4 km/h (2 Bft) 95,74 %
21.07.2016 18:20 29,2 C 31,1 C 28,9 C 58 % 0 lf 1013,9 hPa 0,0 l/m 0 min 0 min 201 W/m 10,5 km/h (2 Bft) 86,96 %
21.07.2016 18:22 29,2 C 31,1 C 29,4 C 58 % 0 lf 1013,9 hPa 0,0 l/m 0 min 0 min 201 W/m 8,4 km/h (2 Bft) 93,62 %
21.07.2016 18:24 29,2 C 31,1 C 29,4 C 58 % 0 lf 1013,9 hPa 0,0 l/m 0 min 0 min 203 W/m 10,5 km/h (2 Bft) 95,74 %
21.07.2016 18:26 29,2 C 30,6 C 29,4 C 58 % 0 lf 1013,9 hPa 0,0 l/m 0 min 0 min 199 W/m 6,3 km/h (2 Bft) 97,87 %
21.07.2016 18:28 29,2 C 30,6 C 28,9 C 58 % 0 lf 1013,9 hPa 0,0 l/m 0 min 0 min 193 W/m 10,5 km/h (2 Bft) 97,87 %
21.07.2016 18:30 29,1 C 30,6 C 28,9 C 57 % 0 lf 1013,8 hPa 0,0 l/m 0 min 0 min 193 W/m 10,5 km/h (2 Bft) 95,92 %
21.07.2016 18:32 29,1 C 30,0 C 28,9 C 58 % 0 lf 1013,7 hPa 0,0 l/m 0 min 0 min 182 W/m 12,6 km/h (3 Bft) 97,87 %
21.07.2016 18:34 29,1 C 30,0 C 28,9 C 59 % 0 lf 1013,8 hPa 0,0 l/m 0 min 0 min 163 W/m 12,6 km/h (3 Bft) 95,74 %
21.07.2016 18:36 29,1 C 30,0 C 28,3 C 58 % 0 lf 1013,8 hPa 0,0 l/m 0 min 0 min 148 W/m 12,6 km/h (3 Bft) 94,29 %
21.07.2016 18:38 29,1 C 30,0 C 28,3 C 58 % 0 lf 1013,7 hPa 0,0 l/m 0 min 0 min 146 W/m 8,4 km/h (2 Bft) 97,87 %
21.07.2016 18:40 29,1 C 30,0 C 28,3 C 58 % 0 lf 1013,7 hPa 0,0 l/m 0 min 0 min 155 W/m 10,5 km/h (2 Bft) 97,83 %
21.07.2016 18:42 29,0 C 30,0 C 28,3 C 58 % 0 lf 1013,7 hPa 0,0 l/m 0 min 0 min 162 W/m 10,5 km/h (2 Bft) 95,74 %
21.07.2016 18:44 29,0 C 30,0 C 28,3 C 58 % 0 lf 1013,7 hPa 0,0 l/m 0 min 0 min 163 W/m 16,7 km/h (3 Bft) 97,87 %
21.07.2016 18:46 28,9 C 29,4 C 27,8 C 59 % 0 lf 1013,6 hPa 0,0 l/m 0 min 0 min 165 W/m 12,6 km/h (3 Bft) 97,87 %
21.07.2016 18:48 28,9 C 29,4 C 28,3 C 60 % 0 lf 1013,6 hPa 0,0 l/m 0 min 0 min 167 W/m 14,6 km/h (3 Bft) 95,74 %
21.07.2016 18:50 28,9 C 29,4 C 27,8 C 59 % 0 lf 1013,5 hPa 0,0 l/m 0 min 0 min 174 W/m 12,6 km/h (3 Bft) 97,87 %
21.07.2016 18:52 28,9 C 29,4 C 27,8 C 60 % 0 lf 1013,5 hPa 0,0 l/m 2 min 0 min 199 W/m 6,3 km/h (2 Bft) 97,83 %
21.07.2016 18:54 28,8 C 30,0 C 28,3 C 60 % 0 lf 1013,5 hPa 0,0 l/m 2 min 0 min 315 W/m 10,5 km/h (2 Bft) 97,87 %
21.07.2016 18:56 28,8 C 30,0 C 28,3 C 60 % 0 lf 1013,5 hPa 0,0 l/m 2 min 0 min 338 W/m 8,4 km/h (2 Bft) 97,87 %
21.07.2016 18:58 28,8 C 30,0 C 28,3 C 60 % 0 lf 1013,4 hPa 0,0 l/m 2 min 0 min 329 W/m 8,4 km/h (2 Bft) 95,74 %
21.07.2016 19:00 28,8 C 30,0 C 28,3 C 61 % 0 lf 1013,4 hPa 0,0 l/m 2 min 0 min 321 W/m 6,3 km/h (2 Bft) 95,74 %
21.07.2016 19:02 28,8 C 30,0 C 28,3 C 61 % 0 lf 1013,5 hPa 0,0 l/m 2 min 0 min 305 W/m 8,4 km/h (2 Bft) 97,87 %
21.07.2016 19:04 28,8 C 30,0 C 27,8 C 61 % 0 lf 1013,5 hPa 0,0 l/m 2 min 0 min 292 W/m 14,6 km/h (3 Bft) 93,48 %
21.07.2016 19:06 28,8 C 30,0 C 27,8 C 61 % 0 lf 1013,5 hPa 0,0 l/m 2 min 0 min 291 W/m 12,6 km/h (3 Bft) 97,87 %
21.07.2016 19:08 28,8 C 30,0 C 27,8 C 61 % 0 lf 1013,5 hPa 0,0 l/m 2 min 0 min 287 W/m 12,6 km/h (3 Bft) 93,62 %
21.07.2016 19:10 28,8 C 29,4 C 27,8 C 61 % 0 lf 1013,5 hPa 0,0 l/m 2 min 0 min 260 W/m 12,6 km/h (3 Bft) 97,87 %
21.07.2016 19:12 28,7 C 29,4 C 27,8 C 60 % 0 lf 1013,5 hPa 0,0 l/m 2 min 0 min 276 W/m 12,6 km/h (3 Bft) 97,87 %
21.07.2016 19:14 28,7 C 29,4 C 27,8 C 60 % 0 lf 1013,5 hPa 0,0 l/m 2 min 0 min 274 W/m 10,5 km/h (2 Bft) 97,87 %
21.07.2016 19:16 28,7 C 29,4 C 27,8 C 61 % 0 lf 1013,5 hPa 0,0 l/m 2 min 0 min 269 W/m 8,4 km/h (2 Bft) 97,83 %
21.07.2016 19:18 28,7 C 29,4 C 27,8 C 61 % 0 lf 1013,5 hPa 0,0 l/m 2 min 0 min 264 W/m 10,5 km/h (2 Bft) 97,87 %
21.07.2016 19:20 28,7 C 29,4 C 27,8 C 61 % 0 lf 1013,6 hPa 0,0 l/m 2 min 0 min 255 W/m 16,7 km/h (3 Bft) 100,00 %
21.07.2016 19:22 28,7 C 29,4 C 27,8 C 60 % 0 lf 1013,6 hPa 0,0 l/m 2 min 0 min 247 W/m 16,7 km/h (3 Bft) 100,00 %
21.07.2016 19:24 28,7 C 29,4 C 27,8 C 60 % 0 lf 1013,6 hPa 0,0 l/m 2 min 0 min 243 W/m 10,5 km/h (2 Bft) 97,87 %
21.07.2016 19:26 28,7 C 29,4 C 27,8 C 60 % 0 lf 1013,6 hPa 0,0 l/m 2 min 0 min 238 W/m 10,5 km/h (2 Bft) 97,87 %
21.07.2016 19:28 28,6 C 29,4 C 27,8 C 60 % 0 lf 1013,6 hPa 0,0 l/m 2 min 0 min 232 W/m 14,6 km/h (3 Bft) 95,65 %
21.07.2016 19:30 28,6 C 29,4 C 27,8 C 61 % 0 lf 1013,7 hPa 0,0 l/m 2 min 0 min 228 W/m 12,6 km/h (3 Bft) 100,00 %
21.07.2016 19:32 28,6 C 29,4 C 27,8 C 61 % 0 lf 1013,6 hPa 0,0 l/m 2 min 0 min 220 W/m 10,5 km/h (2 Bft) 97,87 %
21.07.2016 19:34 28,6 C 28,9 C 27,2 C 61 % 0 lf 1013,6 hPa 0,0 l/m 2 min 0 min 215 W/m 12,6 km/h (3 Bft) 97,87 %
21.07.2016 19:36 28,6 C 28,9 C 27,2 C 61 % 0 lf 1013,7 hPa 0,0 l/m 2 min 0 min 218 W/m 6,3 km/h (2 Bft) 97,87 %
21.07.2016 19:38 28,5 C 28,9 C 27,2 C 61 % 0 lf 1013,7 hPa 0,0 l/m 2 min 0 min 216 W/m 8,4 km/h (2 Bft) 95,74 %
21.07.2016 19:40 28,5 C 28,9 C 27,2 C 61 % 0 lf 1013,6 hPa 0,0 l/m 2 min 0 min 194 W/m 10,5 km/h (2 Bft) 95,65 %
21.07.2016 19:42 28,4 C 28,9 C 27,2 C 61 % 0 lf 1013,6 hPa 0,0 l/m 2 min 0 min 161 W/m 10,5 km/h (2 Bft) 93,62 %
21.07.2016 19:44 28,4 C 28,9 C 27,2 C 61 % 0 lf 1013,6 hPa 0,0 l/m 2 min 0 min 165 W/m 8,4 km/h (2 Bft) 93,62 %
21.07.2016 19:46 28,4 C 28,9 C 27,2 C 62 % 0 lf 1013,7 hPa 0,0 l/m 2 min 0 min 179 W/m 12,6 km/h (3 Bft) 95,74 %
21.07.2016 19:48 28,4 C 28,9 C 27,2 C 62 % 0 lf 1013,7 hPa 0,0 l/m 2 min 0 min 192 W/m 8,4 km/h (2 Bft) 97,87 %
21.07.2016 19:50 28,4 C 28,9 C 27,2 C 61 % 0 lf 1013,7 hPa 0,0 l/m 2 min 0 min 197 W/m 10,5 km/h (2 Bft) 95,74 %
21.07.2016 19:52 28,3 C 28,9 C 27,2 C 62 % 0 lf 1013,7 hPa 0,0 l/m 2 min 0 min 189 W/m 10,5 km/h (2 Bft) 93,48 %
21.07.2016 19:54 28,3 C 28,9 C 27,8 C 62 % 0 lf 1013,8 hPa 0,0 l/m 2 min 0 min 180 W/m 6,3 km/h (2 Bft) 95,74 %
21.07.2016 19:56 28,3 C 28,9 C 27,2 C 62 % 0 lf 1013,8 hPa 0,0 l/m 2 min 0 min 167 W/m 10,5 km/h (2 Bft) 91,49 %
21.07.2016 19:58 28,3 C 28,3 C 27,2 C 62 % 0 lf 1013,7 hPa 0,0 l/m 2 min 0 min 155 W/m 12,6 km/h (3 Bft) 93,62 %
21.07.2016 20:00 28,3 C 28,3 C 27,2 C 62 % 0 lf 1013,8 hPa 0,0 l/m 2 min 0 min 148 W/m 6,3 km/h (2 Bft) 89,36 %
21.07.2016 20:02 28,2 C 28,3 C 27,2 C 63 % 0 lf 1013,7 hPa 0,0 l/m 2 min 0 min 145 W/m 12,6 km/h (3 Bft) 92,73 %
21.07.2016 20:04 28,2 C 28,3 C 26,7 C 63 % 0 lf 1013,7 hPa 0,0 l/m 2 min 0 min 140 W/m 8,4 km/h (2 Bft) 93,62 %
21.07.2016 20:06 28,2 C 28,3 C 26,7 C 63 % 0 lf 1013,7 hPa 0,0 l/m 2 min 0 min 133 W/m 10,5 km/h (2 Bft) 93,48 %
21.07.2016 20:08 28,2 C 27,8 C 26,7 C 62 % 0 lf 1013,7 hPa 0,0 l/m 2 min 0 min 127 W/m 8,4 km/h (2 Bft) 93,48 %
21.07.2016 20:10 28,1 C 27,8 C 26,7 C 63 % 0 lf 1013,6 hPa 0,0 l/m 2 min 0 min 122 W/m 12,6 km/h (3 Bft) 91,49 %
21.07.2016 20:12 28,1 C 27,8 C 26,7 C 63 % 0 lf 1013,6 hPa 0,0 l/m 2 min 0 min 112 W/m 12,6 km/h (3 Bft) 91,49 %
21.07.2016 20:14 28,1 C 27,8 C 26,1 C 63 % 0 lf 1013,6 hPa 0,0 l/m 2 min 0 min 101 W/m 10,5 km/h (2 Bft) 91,49 %
21.07.2016 20:16 28,0 C 27,8 C 26,1 C 63 % 0 lf 1013,6 hPa 0,0 l/m 2 min 0 min 93 W/m 8,4 km/h (2 Bft) 93,62 %
21.07.2016 20:18 28,0 C 27,8 C 26,1 C 64 % 0 lf 1013,6 hPa 0,0 l/m 2 min 0 min 89 W/m 6,3 km/h (2 Bft) 91,30 %
21.07.2016 20:20 27,9 C 27,8 C 26,1 C 64 % 0 lf 1013,7 hPa 0,0 l/m 2 min 0 min 84 W/m 10,5 km/h (2 Bft) 93,75 %
21.07.2016 20:22 27,9 C 27,2 C 26,1 C 64 % 0 lf 1013,6 hPa 0,0 l/m 0 min 0 min 77 W/m 10,5 km/h (2 Bft) 95,74 %
21.07.2016 20:24 27,9 C 27,2 C 25,6 C 64 % 0 lf 1013,6 hPa 0,0 l/m 0 min 0 min 69 W/m 12,6 km/h (3 Bft) 93,62 %
21.07.2016 20:26 27,9 C 27,2 C 25,6 C 64 % 0 lf 1013,6 hPa 0,0 l/m 0 min 0 min 66 W/m 8,4 km/h (2 Bft) 93,62 %
21.07.2016 20:28 27,8 C 27,2 C 25,6 C 64 % 0 lf 1013,6 hPa 0,0 l/m 0 min 0 min 67 W/m 8,4 km/h (2 Bft) 93,75 %
21.07.2016 20:30 27,8 C 27,2 C 25,6 C 64 % 0 lf 1013,7 hPa 0,0 l/m 0 min 0 min 67 W/m 8,4 km/h (2 Bft) 97,83 %
21.07.2016 20:32 27,8 C 27,2 C 25,6 C 64 % 0 lf 1013,7 hPa 0,0 l/m 0 min 0 min 65 W/m 10,5 km/h (2 Bft) 97,87 %
21.07.2016 20:34 27,7 C 27,2 C 25,6 C 64 % 0 lf 1013,7 hPa 0,0 l/m 0 min 0 min 62 W/m 8,4 km/h (2 Bft) 95,74 %
21.07.2016 20:36 27,7 C 26,7 C 25,6 C 64 % 0 lf 1013,7 hPa 0,0 l/m 0 min 0 min 58 W/m 10,5 km/h (2 Bft) 95,74 %
21.07.2016 20:38 27,6 C 26,7 C 25,6 C 64 % 0 lf 1013,7 hPa 0,0 l/m 0 min 0 min 56 W/m 8,4 km/h (2 Bft) 95,83 %
21.07.2016 20:40 27,6 C 26,7 C 25,0 C 65 % 0 lf 1013,8 hPa 0,0 l/m 0 min 0 min 52 W/m 8,4 km/h (2 Bft) 95,65 %
21.07.2016 20:42 27,6 C 26,7 C 25,0 C 65 % 0 lf 1013,8 hPa 0,0 l/m 0 min 0 min 48 W/m 10,5 km/h (2 Bft) 97,87 %
21.07.2016 20:44 27,5 C 26,7 C 25,0 C 65 % 0 lf 1013,8 hPa 0,0 l/m 0 min 0 min 46 W/m 8,4 km/h (2 Bft) 95,74 %
21.07.2016 20:46 27,4 C 26,7 C 25,0 C 65 % 0 lf 1013,9 hPa 0,0 l/m 0 min 0 min 44 W/m 8,4 km/h (2 Bft) 100,00 %
21.07.2016 20:48 27,4 C 26,1 C 25,0 C 65 % 0 lf 1014,0 hPa 0,0 l/m 0 min 0 min 42 W/m 10,5 km/h (2 Bft) 100,00 %
21.07.2016 20:50 27,3 C 26,1 C 24,4 C 66 % 0 lf 1014,1 hPa 0,0 l/m 0 min 0 min 39 W/m 10,5 km/h (2 Bft) 100,00 %
21.07.2016 20:52 27,3 C 26,1 C 24,4 C 66 % 0 lf 1014,1 hPa 0,0 l/m 0 min 0 min 34 W/m 6,3 km/h (2 Bft) 95,74 %
21.07.2016 20:54 27,3 C 26,1 C 24,4 C 66 % 0 lf 1014,2 hPa 0,0 l/m 0 min 0 min 32 W/m 4,2 km/h (1 Bft) 100,00 %
21.07.2016 20:56 27,2 C 26,1 C 24,4 C 66 % 0 lf 1014,2 hPa 0,0 l/m 0 min 0 min 30 W/m 6,3 km/h (2 Bft) 100,00 %
21.07.2016 20:58 27,2 C 26,1 C 23,9 C 66 % 0 lf 1014,2 hPa 0,0 l/m 0 min 0 min 26 W/m 4,2 km/h (1 Bft) 100,00 %
21.07.2016 21:00 27,2 C 25,6 C 23,9 C 66 % 0 lf 1014,2 hPa 0,0 l/m 0 min 0 min 24 W/m 6,3 km/h (2 Bft) 100,00 %
21.07.2016 21:02 27,1 C 25,6 C 23,9 C 67 % 0 lf 1014,2 hPa 0,0 l/m 0 min 0 min 22 W/m 6,3 km/h (2 Bft) 100,00 %
21.07.2016 21:04 27,1 C 25,6 C 23,9 C 67 % 0 lf 1014,2 hPa 0,0 l/m 0 min 0 min 21 W/m 6,3 km/h (2 Bft) 100,00 %
21.07.2016 21:06 27,0 C 25,6 C 23,3 C 67 % 0 lf 1014,2 hPa 0,0 l/m 0 min 0 min 21 W/m 8,4 km/h (2 Bft) 97,87 %
21.07.2016 21:08 27,0 C 25,6 C 23,3 C 67 % 0 lf 1014,2 hPa 0,0 l/m 0 min 0 min 20 W/m 4,2 km/h (1 Bft) 100,00 %
21.07.2016 21:10 26,9 C 25,6 C 23,3 C 67 % 0 lf 1014,2 hPa 0,0 l/m 0 min 0 min 19 W/m 4,2 km/h (1 Bft) 97,87 %
21.07.2016 21:12 26,9 C 25,0 C 23,3 C 67 % 0 lf 1014,2 hPa 0,0 l/m 0 min 0 min 18 W/m 6,3 km/h (2 Bft) 97,87 %
21.07.2016 21:14 26,8 C 25,0 C 23,3 C 67 % 0 lf 1014,2 hPa 0,0 l/m 0 min 0 min 18 W/m 6,3 km/h (2 Bft) 100,00 %
21.07.2016 21:16 26,8 C 25,0 C 23,9 C 67 % 0 lf 1014,3 hPa 0,0 l/m 0 min 0 min 18 W/m 8,4 km/h (2 Bft) 100,00 %
21.07.2016 21:18 26,7 C 25,0 C 23,9 C 67 % 0 lf 1014,3 hPa 0,0 l/m 0 min 0 min 17 W/m 6,3 km/h (2 Bft) 97,87 %
21.07.2016 21:20 26,7 C 25,6 C 23,9 C 68 % 0 lf 1014,4 hPa 0,0 l/m 0 min 0 min 15 W/m 10,5 km/h (2 Bft) 95,74 %
21.07.2016 21:22 26,6 C 25,6 C 23,9 C 68 % 0 lf 1014,4 hPa 0,0 l/m 0 min 0 min 14 W/m 8,4 km/h (2 Bft) 95,74 %
21.07.2016 21:24 26,6 C 25,0 C 23,9 C 68 % 0 lf 1014,4 hPa 0,0 l/m 0 min 0 min 12 W/m 6,3 km/h (2 Bft) 100,00 %
21.07.2016 21:26 26,5 C 25,0 C 23,9 C 68 % 0 lf 1014,4 hPa 0,0 l/m 0 min 0 min 12 W/m 8,4 km/h (2 Bft) 97,87 %
21.07.2016 21:28 26,4 C 25,0 C 23,9 C 69 % 0 lf 1014,5 hPa 0,0 l/m 0 min 0 min 12 W/m 10,5 km/h (2 Bft) 89,13 %
21.07.2016 21:30 26,4 C 25,0 C 23,9 C 69 % 0 lf 1014,4 hPa 0,0 l/m 0 min 0 min 11 W/m 14,6 km/h (3 Bft) 97,87 %
21.07.2016 21:32 26,3 C 25,0 C 23,9 C 70 % 0 lf 1014,5 hPa 0,0 l/m 0 min 0 min 11 W/m 16,7 km/h (3 Bft) 97,87 %
21.07.2016 21:34 26,2 C 25,0 C 23,9 C 70 % 0 lf 1014,6 hPa 0,0 l/m 0 min 0 min 9 W/m 14,6 km/h (3 Bft) 95,74 %
21.07.2016 21:36 26,2 C 25,0 C 23,9 C 70 % 0 lf 1014,7 hPa 0,0 l/m 0 min 0 min 8 W/m 8,4 km/h (2 Bft) 97,87 %
21.07.2016 21:38 26,1 C 25,0 C 23,9 C 70 % 0 lf 1014,7 hPa 0,0 l/m 0 min 0 min 7 W/m 12,6 km/h (3 Bft) 97,87 %
21.07.2016 21:40 26,0 C 25,0 C 23,9 C 71 % 0 lf 1014,8 hPa 0,0 l/m 0 min 0 min 7 W/m 10,5 km/h (2 Bft) 93,48 %
21.07.2016 21:42 25,9 C 25,0 C 23,9 C 71 % 0 lf 1014,7 hPa 0,0 l/m 0 min 0 min 7 W/m 10,5 km/h (2 Bft) 95,74 %
21.07.2016 21:44 25,9 C 25,0 C 23,9 C 72 % 0 lf 1014,8 hPa 0,0 l/m 0 min 0 min 5 W/m 14,6 km/h (3 Bft) 95,74 %
21.07.2016 21:46 25,8 C 25,0 C 23,9 C 72 % 0 lf 1014,8 hPa 0,0 l/m 0 min 0 min 5 W/m 12,6 km/h (3 Bft) 93,62 %
21.07.2016 21:48 25,8 C 25,0 C 23,9 C 72 % 0 lf 1014,8 hPa 0,0 l/m 0 min 0 min 5 W/m 12,6 km/h (3 Bft) 95,74 %
21.07.2016 21:50 25,7 C 25,0 C 23,3 C 72 % 0 lf 1014,8 hPa 0,0 l/m 0 min 0 min 5 W/m 14,6 km/h (3 Bft) 95,74 %
21.07.2016 21:52 25,7 C 25,0 C 23,3 C 72 % 0 lf 1014,8 hPa 0,0 l/m 0 min 0 min 5 W/m 14,6 km/h (3 Bft) 97,83 %
21.07.2016 21:54 25,6 C 25,0 C 23,3 C 73 % 0 lf 1014,7 hPa 0,0 l/m 0 min 0 min 5 W/m 10,5 km/h (2 Bft) 95,74 %
21.07.2016 21:56 25,6 C 25,0 C 23,3 C 73 % 0 lf 1014,8 hPa 0,0 l/m 0 min 0 min 5 W/m 12,6 km/h (3 Bft) 97,87 %
21.07.2016 21:58 25,5 C 24,4 C 23,3 C 73 % 0 lf 1014,7 hPa 0,0 l/m 0 min 0 min 5 W/m 8,4 km/h (2 Bft) 95,74 %
21.07.2016 22:00 25,5 C 24,4 C 23,3 C 73 % 0 lf 1014,7 hPa 0,0 l/m 0 min 0 min 5 W/m 8,4 km/h (2 Bft) 89,36 %
21.07.2016 22:02 25,4 C 24,4 C 23,3 C 73 % 0 lf 1014,8 hPa 0,0 l/m 0 min 0 min 5 W/m 10,5 km/h (2 Bft) 89,36 %
21.07.2016 22:04 25,4 C 24,4 C 23,3 C 73 % 0 lf 1014,8 hPa 0,0 l/m 0 min 0 min 5 W/m 6,3 km/h (2 Bft) 93,48 %
21.07.2016 22:06 25,3 C 24,4 C 23,3 C 74 % 0 lf 1014,8 hPa 0,0 l/m 0 min 0 min 5 W/m 8,4 km/h (2 Bft) 95,74 %
21.07.2016 22:08 25,3 C 24,4 C 23,3 C 74 % 0 lf 1014,8 hPa 0,0 l/m 0 min 0 min 5 W/m 8,4 km/h (2 Bft) 93,62 %
21.07.2016 22:10 25,3 C 24,4 C 23,3 C 74 % 0 lf 1014,8 hPa 0,0 l/m 0 min 0 min 5 W/m 10,5 km/h (2 Bft) 91,49 %
21.07.2016 22:12 25,3 C 24,4 C 23,3 C 74 % 0 lf 1014,8 hPa 0,0 l/m 0 min 0 min 5 W/m 10,5 km/h (2 Bft) 91,49 %
21.07.2016 22:14 25,2 C 24,4 C 23,3 C 74 % 0 lf 1014,8 hPa 0,0 l/m 0 min 0 min 5 W/m 10,5 km/h (2 Bft) 93,62 %
21.07.2016 22:16 25,2 C 24,4 C 22,8 C 74 % 0 lf 1014,8 hPa 0,0 l/m 0 min 0 min 5 W/m 14,6 km/h (3 Bft) 93,48 %
21.07.2016 22:18 25,1 C 23,9 C 22,8 C 74 % 0 lf 1014,9 hPa 0,0 l/m 0 min 0 min 5 W/m 8,4 km/h (2 Bft) 93,62 %
21.07.2016 22:20 25,1 C 23,9 C 22,8 C 74 % 0 lf 1014,9 hPa 0,0 l/m 0 min 0 min 5 W/m 12,6 km/h (3 Bft) 93,62 %
21.07.2016 22:22 25,1 C 23,9 C 22,8 C 74 % 0 lf 1014,9 hPa 0,0 l/m 0 min 0 min 5 W/m 14,6 km/h (3 Bft) 93,62 %
21.07.2016 22:24 25,1 C 23,9 C 22,8 C 75 % 0 lf 1014,9 hPa 0,0 l/m 0 min 0 min 5 W/m 12,6 km/h (3 Bft) 95,74 %
21.07.2016 22:26 25,0 C 23,9 C 22,8 C 75 % 0 lf 1014,9 hPa 0,0 l/m 0 min 0 min 5 W/m 8,4 km/h (2 Bft) 95,65 %
21.07.2016 22:28 24,9 C 23,9 C 22,8 C 75 % 0 lf 1015,0 hPa 0,0 l/m 0 min 0 min 5 W/m 10,5 km/h (2 Bft) 93,62 %
21.07.2016 22:30 24,9 C 23,9 C 22,8 C 75 % 0 lf 1015,0 hPa 0,0 l/m 0 min 0 min 5 W/m 14,6 km/h (3 Bft) 91,49 %
21.07.2016 22:32 24,9 C 23,9 C 22,8 C 75 % 0 lf 1015,0 hPa 0,0 l/m 0 min 0 min 5 W/m 12,6 km/h (3 Bft) 93,62 %
21.07.2016 22:34 24,8 C 23,9 C 22,8 C 75 % 0 lf 1015,0 hPa 0,0 l/m 0 min 0 min 5 W/m 12,6 km/h (3 Bft) 95,74 %
21.07.2016 22:36 24,8 C 23,9 C 22,8 C 75 % 0 lf 1015,0 hPa 0,0 l/m 0 min 0 min 5 W/m 14,6 km/h (3 Bft) 97,87 %
21.07.2016 22:38 24,7 C 23,9 C 22,8 C 75 % 0 lf 1015,0 hPa 0,0 l/m 0 min 0 min 5 W/m 14,6 km/h (3 Bft) 97,83 %
21.07.2016 22:40 24,7 C 23,9 C 22,8 C 75 % 0 lf 1015,1 hPa 0,0 l/m 0 min 0 min 5 W/m 10,5 km/h (2 Bft) 97,87 %
21.07.2016 22:42 24,7 C 23,9 C 22,8 C 75 % 0 lf 1015,2 hPa 0,0 l/m 0 min 0 min 5 W/m 10,5 km/h (2 Bft) 95,74 %
21.07.2016 22:44 24,6 C 23,9 C 22,2 C 75 % 0 lf 1015,2 hPa 0,0 l/m 0 min 0 min 5 W/m 12,6 km/h (3 Bft) 97,87 %
21.07.2016 22:46 24,6 C 23,9 C 22,2 C 76 % 0 lf 1015,2 hPa 0,0 l/m 0 min 0 min 5 W/m 10,5 km/h (2 Bft) 95,74 %
21.07.2016 22:48 24,5 C 23,9 C 22,2 C 76 % 0 lf 1015,2 hPa 0,0 l/m 0 min 0 min 5 W/m 8,4 km/h (2 Bft) 93,62 %
21.07.2016 22:50 24,5 C 23,3 C 22,2 C 76 % 0 lf 1015,2 hPa 0,0 l/m 0 min 0 min 5 W/m 12,6 km/h (3 Bft) 93,48 %
21.07.2016 22:52 24,4 C 23,3 C 22,2 C 76 % 0 lf 1015,2 hPa 0,0 l/m 0 min 0 min 5 W/m 12,6 km/h (3 Bft) 95,74 %
21.07.2016 22:54 24,4 C 23,3 C 22,2 C 76 % 0 lf 1015,2 hPa 0,0 l/m 0 min 0 min 5 W/m 8,4 km/h (2 Bft) 100,00 %
21.07.2016 22:56 24,4 C 23,3 C 22,2 C 76 % 0 lf 1015,2 hPa 0,0 l/m 0 min 0 min 5 W/m 8,4 km/h (2 Bft) 97,87 %
21.07.2016 22:58 24,4 C 23,3 C 22,2 C 76 % 0 lf 1015,2 hPa 0,0 l/m 0 min 0 min 5 W/m 8,4 km/h (2 Bft) 95,74 %
21.07.2016 23:00 24,3 C 23,3 C 22,2 C 76 % 0 lf 1015,2 hPa 0,0 l/m 0 min 0 min 5 W/m 8,4 km/h (2 Bft) 100,00 %
21.07.2016 23:02 24,3 C 23,3 C 22,2 C 76 % 0 lf 1015,2 hPa 0,0 l/m 0 min 0 min 5 W/m 8,4 km/h (2 Bft) 100,00 %
21.07.2016 23:04 24,3 C 23,3 C 22,2 C 77 % 0 lf 1015,1 hPa 0,0 l/m 0 min 0 min 5 W/m 8,4 km/h (2 Bft) 97,87 %
21.07.2016 23:06 24,2 C 23,3 C 22,2 C 77 % 0 lf 1015,1 hPa 0,0 l/m 0 min 0 min 5 W/m 6,3 km/h (2 Bft) 97,87 %
21.07.2016 23:08 24,2 C 23,3 C 22,2 C 77 % 0 lf 1015,1 hPa 0,0 l/m 0 min 0 min 5 W/m 8,4 km/h (2 Bft) 95,74 %
21.07.2016 23:10 24,2 C 23,3 C 22,2 C 77 % 0 lf 1015,1 hPa 0,0 l/m 0 min 0 min 5 W/m 8,4 km/h (2 Bft) 95,74 %
21.07.2016 23:12 24,2 C 23,3 C 22,2 C 77 % 0 lf 1015,2 hPa 0,0 l/m 0 min 0 min 5 W/m 10,5 km/h (2 Bft) 93,62 %
21.07.2016 23:14 24,1 C 23,3 C 22,2 C 77 % 0 lf 1015,1 hPa 0,0 l/m 0 min 0 min 5 W/m 10,5 km/h (2 Bft) 100,00 %
21.07.2016 23:16 24,1 C 23,3 C 22,2 C 77 % 0 lf 1015,1 hPa 0,0 l/m 0 min 0 min 5 W/m 10,5 km/h (2 Bft) 95,74 %
21.07.2016 23:18 24,0 C 23,3 C 22,2 C 77 % 0 lf 1015,1 hPa 0,0 l/m 0 min 0 min 5 W/m 8,4 km/h (2 Bft) 97,87 %
21.07.2016 23:20 24,0 C 23,3 C 22,2 C 77 % 0 lf 1015,1 hPa 0,0 l/m 0 min 0 min 0 W/m 6,3 km/h (2 Bft) 95,74 %
21.07.2016 23:22 23,9 C 23,3 C 22,2 C 77 % 0 lf 1015,1 hPa 0,0 l/m 0 min 0 min 0 W/m 6,3 km/h (2 Bft) 97,87 %
21.07.2016 23:24 23,9 C 23,3 C 22,2 C 78 % 0 lf 1015,0 hPa 0,0 l/m 0 min 0 min 0 W/m 10,5 km/h (2 Bft) 95,74 %
21.07.2016 23:26 23,9 C 23,3 C 21,7 C 78 % 0 lf 1015,1 hPa 0,0 l/m 0 min 0 min 0 W/m 8,4 km/h (2 Bft) 95,65 %
21.07.2016 23:28 23,9 C 23,3 C 21,7 C 78 % 0 lf 1015,0 hPa 0,0 l/m 0 min 0 min 0 W/m 8,4 km/h (2 Bft) 95,74 %
21.07.2016 23:30 23,8 C 23,3 C 21,7 C 78 % 0 lf 1015,0 hPa 0,0 l/m 0 min 0 min 0 W/m 10,5 km/h (2 Bft) 95,74 %
21.07.2016 23:32 23,8 C 23,3 C 21,7 C 78 % 0 lf 1015,0 hPa 0,0 l/m 0 min 0 min 0 W/m 10,5 km/h (2 Bft) 97,87 %
21.07.2016 23:34 23,8 C 23,3 C 21,7 C 78 % 0 lf 1015,1 hPa 0,0 l/m 0 min 0 min 0 W/m 10,5 km/h (2 Bft) 95,74 %
21.07.2016 23:36 23,7 C 23,3 C 21,7 C 78 % 0 lf 1015,1 hPa 0,0 l/m 0 min 0 min 0 W/m 10,5 km/h (2 Bft) 97,87 %
21.07.2016 23:38 23,7 C 23,3 C 21,7 C 78 % 0 lf 1015,1 hPa 0,0 l/m 0 min 0 min 0 W/m 10,5 km/h (2 Bft) 97,83 %
21.07.2016 23:40 23,7 C 22,8 C 21,7 C 79 % 0 lf 1015,0 hPa 0,0 l/m 0 min 0 min 0 W/m 8,4 km/h (2 Bft) 97,87 %
21.07.2016 23:42 23,6 C 22,8 C 21,7 C 79 % 0 lf 1015,0 hPa 0,0 l/m 0 min 0 min 0 W/m 12,6 km/h (3 Bft) 97,87 %
21.07.2016 23:44 23,6 C 22,8 C 21,7 C 79 % 0 lf 1015,0 hPa 0,0 l/m 0 min 0 min 0 W/m 8,4 km/h (2 Bft) 97,87 %
21.07.2016 23:46 23,6 C 22,8 C 21,7 C 79 % 0 lf 1015,0 hPa 0,0 l/m 0 min 0 min 0 W/m 6,3 km/h (2 Bft) 97,87 %
21.07.2016 23:48 23,6 C 22,8 C 21,7 C 79 % 0 lf 1015,0 hPa 0,0 l/m 0 min 0 min 0 W/m 10,5 km/h (2 Bft) 97,83 %
21.07.2016 23:50 23,5 C 22,8 C 21,7 C 79 % 0 lf 1015,0 hPa 0,0 l/m 0 min 0 min 0 W/m 8,4 km/h (2 Bft) 97,87 %
21.07.2016 23:52 23,5 C 22,8 C 21,7 C 79 % 0 lf 1015,0 hPa 0,0 l/m 0 min 0 min 0 W/m 10,5 km/h (2 Bft) 95,74 %
21.07.2016 23:54 23,5 C 22,8 C 21,7 C 79 % 0 lf 1014,9 hPa 0,0 l/m 0 min 0 min 0 W/m 10,5 km/h (2 Bft) 97,87 %
21.07.2016 23:56 23,4 C 22,8 C 21,7 C 79 % 0 lf 1014,9 hPa 0,0 l/m 0 min 0 min 0 W/m 10,5 km/h (2 Bft) 95,74 %
21.07.2016 23:58 23,4 C 22,8 C 21,7 C 79 % 0 lf 1014,9 hPa 0,0 l/m 0 min 0 min 0 W/m 8,4 km/h (2 Bft) 97,87 %
_ Min-Zeit 06:18 05:14 05:22 13:10 00:00 00:34 - - - - 01:18 18:20
Minimum _ 20,7 C 20,0 C 18,3 C 50 % 0 lf 1011,4 hPa - - - - 0,0 km/h (0 Bft) 86,96 %
_ Max-Zeit 14:24 12:54 15:44 06:18 00:40 22:42 00:00 06:04 00:32 13:52 09:28 00:02
Maximum _ 31,3 C 40,0 C 41,1 C 90 % 14 lf 1015,2 hPa 0,0 l/m 2 min 2 min 894 W/m 29,3 km/h
SW (5 Bft)
100,00 %
Durchschnitt _ 25,9 C 28,0 C 26,0 C 70 % 0 lf 1013,3 hPa #0,0 l/m #10:49 h #8 min. 316 W/m 10,1 km/h (2 Bft) 96,16 %
© 2016 W. Hausmann